Time,TemperatureF,DewpointF,PressureIn,WindDirection,WindDirectionDegrees,WindSpeedMPH,WindSpeedGustMPH,Humidity,HourlyPrecipIn,Conditions,Clouds,dailyrainin,SoftwareType,DateUTC
2013-07-11 00:00:00,46.4,43.0,30.09,SSE,147,0.0,0.0,88,0.00,,---,0.00,VWS V14.01,2013-07-11 08:00:00,
2013-07-11 00:01:00,46.4,43.0,30.09,SSE,147,0.0,0.0,88,0.00,,---,0.00,VWS V14.01,2013-07-11 08:01:00,
2013-07-11 00:02:00,46.2,42.8,30.09,SSE,147,0.0,0.0,88,0.00,,---,0.00,VWS V14.01,2013-07-11 08:02:00,
2013-07-11 00:05:00,45.8,42.5,30.09,SSE,147,0.0,0.0,88,0.00,,---,0.00,VWS V14.01,2013-07-11 08:05:00,
2013-07-11 00:06:00,45.7,42.4,30.09,SSE,147,0.0,0.0,88,0.00,,---,0.00,VWS V14.01,2013-07-11 08:06:00,
2013-07-11 00:07:00,45.6,42.3,30.09,SSE,147,0.0,0.0,88,0.00,,---,0.00,VWS V14.01,2013-07-11 08:07:00,
2013-07-11 00:10:00,45.3,42.0,30.09,SSE,147,0.0,0.0,88,0.00,,---,0.00,VWS V14.01,2013-07-11 08:10:00,
2013-07-11 00:11:00,45.3,42.3,30.09,SSE,147,0.0,0.0,89,0.00,,---,0.00,VWS V14.01,2013-07-11 08:11:00,
2013-07-11 00:12:00,45.1,42.1,30.09,SSE,147,0.0,0.0,89,0.00,,---,0.00,VWS V14.01,2013-07-11 08:12:00,
2013-07-11 00:15:00,44.8,42.0,30.09,SSE,147,0.0,0.0,90,0.00,,---,0.00,VWS V14.01,2013-07-11 08:15:00,
2013-07-11 00:16:00,44.7,42.0,30.09,SSE,147,0.0,0.0,90,0.00,,---,0.00,VWS V14.01,2013-07-11 08:16:00,
2013-07-11 00:18:00,44.6,41.8,30.09,SSE,147,0.0,0.0,90,0.00,,---,0.00,VWS V14.01,2013-07-11 08:18:00,
2013-07-11 00:21:00,44.3,41.6,30.09,SSE,147,0.0,0.0,90,0.00,,---,0.00,VWS V14.01,2013-07-11 08:21:00,
2013-07-11 00:22:00,44.3,41.6,30.09,SSE,147,0.0,0.0,90,0.00,,---,0.00,VWS V14.01,2013-07-11 08:22:00,
2013-07-11 00:23:00,44.2,41.7,30.09,SSE,147,0.0,0.0,91,0.00,,---,0.00,VWS V14.01,2013-07-11 08:23:00,
2013-07-11 00:26:00,44.1,41.7,30.09,SSE,147,0.0,0.0,91,0.00,,---,0.00,VWS V14.01,2013-07-11 08:26:00,
2013-07-11 00:27:00,44.0,41.5,30.09,SSE,147,0.0,0.0,91,0.00,,---,0.00,VWS V14.01,2013-07-11 08:27:00,
2013-07-11 00:29:00,43.9,41.5,30.09,SSE,147,0.0,0.0,91,0.00,,---,0.00,VWS V14.01,2013-07-11 08:29:00,
2013-07-11 00:31:00,43.7,41.2,30.09,SSE,147,0.0,0.0,91,0.00,,---,0.00,VWS V14.01,2013-07-11 08:31:00,
2013-07-11 00:32:00,43.7,41.2,30.09,SSE,147,0.0,0.0,91,0.00,,---,0.00,VWS V14.01,2013-07-11 08:32:00,
2013-07-11 00:34:00,43.6,41.2,30.09,SSE,147,0.0,0.0,91,0.00,,---,0.00,VWS V14.01,2013-07-11 08:34:00,
2013-07-11 00:36:00,43.4,41.0,30.09,SSE,147,0.0,0.0,91,0.00,,---,0.00,VWS V14.01,2013-07-11 08:36:00,
2013-07-11 00:37:00,43.3,40.8,30.10,SSE,147,0.0,0.0,91,0.00,,---,0.00,VWS V14.01,2013-07-11 08:37:00,
2013-07-11 00:38:00,43.3,40.8,30.10,SSE,147,0.0,0.0,91,0.00,,---,0.00,VWS V14.01,2013-07-11 08:38:00,
2013-07-11 00:39:00,43.1,40.7,30.10,SSE,147,0.0,0.0,91,0.00,,---,0.00,VWS V14.01,2013-07-11 08:39:00,
2013-07-11 00:41:00,42.9,40.5,30.10,SSE,147,0.0,0.0,91,0.00,,---,0.00,VWS V14.01,2013-07-11 08:41:00,
2013-07-11 00:42:00,42.9,40.5,30.10,SSE,147,0.0,0.0,91,0.00,,---,0.00,VWS V14.01,2013-07-11 08:42:00,
2013-07-11 00:43:00,42.8,40.6,30.10,SSE,147,0.0,0.0,92,0.00,,---,0.00,VWS V14.01,2013-07-11 08:43:00,
2013-07-11 00:44:00,42.8,40.6,30.10,SSE,147,0.0,0.0,92,0.00,,---,0.00,VWS V14.01,2013-07-11 08:44:00,
2013-07-11 00:45:00,42.7,40.5,30.10,SSE,147,0.0,0.0,92,0.00,,---,0.00,VWS V14.01,2013-07-11 08:45:00,
2013-07-11 00:46:00,42.6,40.4,30.10,SSE,147,0.0,0.0,92,0.00,,---,0.00,VWS V14.01,2013-07-11 08:46:00,
2013-07-11 00:47:00,42.6,40.4,30.10,SSE,147,0.0,0.0,92,0.00,,---,0.00,VWS V14.01,2013-07-11 08:47:00,
2013-07-11 00:48:00,42.5,40.3,30.10,SSE,147,0.0,0.0,92,0.00,,---,0.00,VWS V14.01,2013-07-11 08:48:00,
2013-07-11 00:49:00,42.5,40.3,30.10,SSE,147,0.0,0.0,92,0.00,,---,0.00,VWS V14.01,2013-07-11 08:49:00,
2013-07-11 00:50:00,42.5,40.3,30.10,SSE,147,0.0,0.0,92,0.00,,---,0.00,VWS V14.01,2013-07-11 08:50:00,
2013-07-11 00:52:00,42.4,40.5,30.10,SSE,147,0.0,0.0,93,0.00,,---,0.00,VWS V14.01,2013-07-11 08:52:00,
2013-07-11 00:53:00,42.3,40.4,30.10,SSE,147,0.0,0.0,93,0.00,,---,0.00,VWS V14.01,2013-07-11 08:53:00,
2013-07-11 00:55:00,42.3,40.4,30.10,SSE,147,0.0,0.0,93,0.00,,---,0.00,VWS V14.01,2013-07-11 08:55:00,
2013-07-11 00:56:00,42.2,40.3,30.10,SSE,147,0.0,0.0,93,0.00,,---,0.00,VWS V14.01,2013-07-11 08:56:00,
2013-07-11 00:57:00,42.1,40.2,30.10,SSE,147,0.0,0.0,93,0.00,,---,0.00,VWS V14.01,2013-07-11 08:57:00,
2013-07-11 00:58:00,42.1,40.2,30.10,SSE,147,0.0,0.0,93,0.00,,---,0.00,VWS V14.01,2013-07-11 08:58:00,
2013-07-11 01:00:00,42.0,40.1,30.10,SSE,147,0.0,0.0,93,0.00,,---,0.00,VWS V14.01,2013-07-11 09:00:00,
2013-07-11 01:01:00,41.9,40.0,30.10,SSE,147,0.0,0.0,93,0.00,,---,0.00,VWS V14.01,2013-07-11 09:01:00,
2013-07-11 01:02:00,41.9,40.0,30.10,SSE,147,0.0,0.0,93,0.00,,---,0.00,VWS V14.01,2013-07-11 09:02:00,
2013-07-11 01:04:00,41.8,39.9,30.10,SSE,147,0.0,0.0,93,0.00,,---,0.00,VWS V14.01,2013-07-11 09:04:00,
2013-07-11 01:05:00,41.7,39.8,30.10,SSE,147,0.0,0.0,93,0.00,,---,0.00,VWS V14.01,2013-07-11 09:05:00,
2013-07-11 01:06:00,41.7,39.8,30.10,SSE,147,0.0,0.0,93,0.00,,---,0.00,VWS V14.01,2013-07-11 09:06:00,
2013-07-11 01:07:00,41.6,39.7,30.10,SSE,147,0.0,0.0,93,0.00,,---,0.00,VWS V14.01,2013-07-11 09:07:00,
2013-07-11 01:11:00,41.5,39.6,30.10,SSE,147,0.0,0.0,93,0.00,,---,0.00,VWS V14.01,2013-07-11 09:11:00,
2013-07-11 01:13:00,41.4,39.5,30.10,SSE,147,0.0,0.0,93,0.00,,---,0.00,VWS V14.01,2013-07-11 09:13:00,
2013-07-11 01:16:00,41.3,39.7,30.10,SSE,147,0.0,0.0,94,0.00,,---,0.00,VWS V14.01,2013-07-11 09:16:00,
2013-07-11 01:18:00,41.2,39.3,30.10,SSE,147,0.0,0.0,93,0.00,,---,0.00,VWS V14.01,2013-07-11 09:18:00,
2013-07-11 01:19:00,41.2,39.3,30.10,SSE,147,0.0,0.0,93,0.00,,---,0.00,VWS V14.01,2013-07-11 09:19:00,
2013-07-11 01:21:00,41.1,39.2,30.10,SSE,147,0.0,0.0,93,0.00,,---,0.00,VWS V14.01,2013-07-11 09:21:00,
2013-07-11 01:22:00,41.0,39.1,30.10,SSE,147,0.0,0.0,93,0.00,,---,0.00,VWS V14.01,2013-07-11 09:22:00,
2013-07-11 01:23:00,40.9,39.0,30.10,SSE,147,0.0,0.0,93,0.00,,---,0.00,VWS V14.01,2013-07-11 09:23:00,
2013-07-11 01:24:00,40.9,39.0,30.10,SSE,147,0.0,0.0,93,0.00,,---,0.00,VWS V14.01,2013-07-11 09:24:00,
2013-07-11 01:26:00,40.7,39.1,30.10,SSE,147,0.0,0.0,94,0.00,,---,0.00,VWS V14.01,2013-07-11 09:26:00,
2013-07-11 01:27:00,40.7,38.8,30.10,SSE,147,0.0,0.0,93,0.00,,---,0.00,VWS V14.01,2013-07-11 09:27:00,
2013-07-11 01:28:00,40.7,38.8,30.10,SSE,147,0.0,0.0,93,0.00,,---,0.00,VWS V14.01,2013-07-11 09:28:00,
2013-07-11 01:30:00,40.6,39.0,30.10,SSE,147,0.0,0.0,94,0.00,,---,0.00,VWS V14.01,2013-07-11 09:30:00,
2013-07-11 01:32:00,40.6,39.0,30.10,SSE,147,0.0,0.0,94,0.00,,---,0.00,VWS V14.01,2013-07-11 09:32:00,
2013-07-11 01:33:00,40.5,38.9,30.10,SSE,147,0.0,0.0,94,0.00,,---,0.00,VWS V14.01,2013-07-11 09:33:00,
2013-07-11 01:35:00,40.4,38.8,30.10,SSE,147,0.0,0.0,94,0.00,,---,0.00,VWS V14.01,2013-07-11 09:35:00,
2013-07-11 01:37:00,40.3,38.7,30.10,SSE,147,0.0,0.0,94,0.00,,---,0.00,VWS V14.01,2013-07-11 09:37:00,
2013-07-11 01:38:00,40.3,38.7,30.10,SSE,147,0.0,0.0,94,0.00,,---,0.00,VWS V14.01,2013-07-11 09:38:00,
2013-07-11 01:41:00,40.2,38.6,30.10,SSE,147,0.0,0.0,94,0.00,,---,0.00,VWS V14.01,2013-07-11 09:41:00,
2013-07-11 01:42:00,40.1,38.5,30.10,SSE,147,0.0,0.0,94,0.00,,---,0.00,VWS V14.01,2013-07-11 09:42:00,
2013-07-11 01:43:00,40.1,38.5,30.10,SSE,147,0.0,0.0,94,0.00,,---,0.00,VWS V14.01,2013-07-11 09:43:00,
2013-07-11 01:46:00,40.0,38.4,30.10,SSE,147,0.0,0.0,94,0.00,,---,0.00,VWS V14.01,2013-07-11 09:46:00,
2013-07-11 01:47:00,40.0,38.4,30.10,SSE,147,0.0,0.0,94,0.00,,---,0.00,VWS V14.01,2013-07-11 09:47:00,
2013-07-11 01:48:00,40.0,38.7,30.10,SSE,147,0.0,0.0,95,0.00,,---,0.00,VWS V14.01,2013-07-11 09:48:00,
2013-07-11 01:51:00,40.0,38.4,30.10,SSE,147,0.0,0.0,94,0.00,,---,0.00,VWS V14.01,2013-07-11 09:51:00,
2013-07-11 01:52:00,39.9,38.3,30.09,SSE,147,0.0,0.0,94,0.00,,---,0.00,VWS V14.01,2013-07-11 09:52:00,
2013-07-11 01:53:00,39.9,38.3,30.09,SSE,147,0.0,0.0,94,0.00,,---,0.00,VWS V14.01,2013-07-11 09:53:00,
2013-07-11 01:54:00,39.9,38.3,30.09,SSE,147,0.0,0.0,94,0.00,,---,0.00,VWS V14.01,2013-07-11 09:54:00,
2013-07-11 01:56:00,39.8,38.5,30.09,SSE,147,0.0,0.0,95,0.00,,---,0.00,VWS V14.01,2013-07-11 09:56:00,
2013-07-11 01:57:00,39.8,38.5,30.09,SSE,147,0.0,0.0,95,0.00,,---,0.00,VWS V14.01,2013-07-11 09:57:00,
2013-07-11 01:58:00,39.8,38.5,30.09,SSE,147,0.0,0.0,95,0.00,,---,0.00,VWS V14.01,2013-07-11 09:58:00,
2013-07-11 01:59:00,39.7,38.4,30.09,SSE,147,0.0,0.0,95,0.00,,---,0.00,VWS V14.01,2013-07-11 09:59:00,
2013-07-11 02:00:00,39.7,38.4,30.09,SSE,147,0.0,0.0,95,0.00,,---,0.00,VWS V14.01,2013-07-11 10:00:00,
2013-07-11 02:02:00,39.7,38.4,30.09,SSE,147,0.0,0.0,95,0.00,,---,0.00,VWS V14.01,2013-07-11 10:02:00,
2013-07-11 02:03:00,39.7,38.4,30.09,SSE,147,0.0,0.0,95,0.00,,---,0.00,VWS V14.01,2013-07-11 10:03:00,
2013-07-11 02:04:00,39.7,38.4,30.09,SSE,147,0.0,0.0,95,0.00,,---,0.00,VWS V14.01,2013-07-11 10:04:00,
2013-07-11 02:05:00,39.7,38.4,30.09,SSE,147,0.0,0.0,95,0.00,,---,0.00,VWS V14.01,2013-07-11 10:05:00,
2013-07-11 02:07:00,39.7,38.4,30.09,SSE,147,0.0,0.0,95,0.00,,---,0.00,VWS V14.01,2013-07-11 10:07:00,
2013-07-11 02:09:00,39.7,38.4,30.10,SSE,147,0.0,0.0,95,0.00,,---,0.00,VWS V14.01,2013-07-11 10:09:00,
2013-07-11 02:10:00,39.6,38.3,30.10,SSE,147,0.0,0.0,95,0.00,,---,0.00,VWS V14.01,2013-07-11 10:10:00,
2013-07-11 02:12:00,39.6,38.3,30.10,SSE,147,0.0,0.0,95,0.00,,---,0.00,VWS V14.01,2013-07-11 10:12:00,
2013-07-11 02:14:00,39.5,38.2,30.10,SSE,147,0.0,0.0,95,0.00,,---,0.00,VWS V14.01,2013-07-11 10:14:00,
2013-07-11 02:15:00,39.5,38.2,30.10,SSE,147,0.0,0.0,95,0.00,,---,0.00,VWS V14.01,2013-07-11 10:15:00,
2013-07-11 02:16:00,39.4,38.1,30.10,SSE,147,0.0,0.0,95,0.00,,---,0.00,VWS V14.01,2013-07-11 10:16:00,
2013-07-11 02:17:00,39.4,38.1,30.10,SSE,147,0.0,0.0,95,0.00,,---,0.00,VWS V14.01,2013-07-11 10:17:00,
2013-07-11 02:18:00,39.3,38.0,30.10,SSE,147,0.0,0.0,95,0.00,,---,0.00,VWS V14.01,2013-07-11 10:18:00,
2013-07-11 02:19:00,39.3,38.0,30.10,SSE,147,0.0,0.0,95,0.00,,---,0.00,VWS V14.01,2013-07-11 10:19:00,
2013-07-11 02:20:00,39.2,37.9,30.10,SSE,147,0.0,0.0,95,0.00,,---,0.00,VWS V14.01,2013-07-11 10:20:00,
2013-07-11 02:21:00,39.2,37.9,30.10,SSE,147,0.0,0.0,95,0.00,,---,0.00,VWS V14.01,2013-07-11 10:21:00,
2013-07-11 02:22:00,39.2,37.9,30.10,SSE,147,0.0,0.0,95,0.00,,---,0.00,VWS V14.01,2013-07-11 10:22:00,
2013-07-11 02:24:00,39.1,37.8,30.10,SSE,147,0.0,0.0,95,0.00,,---,0.00,VWS V14.01,2013-07-11 10:24:00,
2013-07-11 02:25:00,39.1,37.8,30.10,SSE,147,0.0,0.0,95,0.00,,---,0.00,VWS V14.01,2013-07-11 10:25:00,
2013-07-11 02:26:00,39.0,37.7,30.10,SSE,147,0.0,0.0,95,0.00,,---,0.00,VWS V14.01,2013-07-11 10:26:00,
2013-07-11 02:27:00,39.0,37.7,30.10,SSE,147,0.0,0.0,95,0.00,,---,0.00,VWS V14.01,2013-07-11 10:27:00,
2013-07-11 02:29:00,38.9,37.6,30.10,SSE,147,0.0,0.0,95,0.00,,---,0.00,VWS V14.01,2013-07-11 10:29:00,
2013-07-11 02:30:00,38.8,37.5,30.10,SSE,147,0.0,0.0,95,0.00,,---,0.00,VWS V14.01,2013-07-11 10:30:00,
2013-07-11 02:31:00,38.8,37.5,30.10,SSE,147,0.0,0.0,95,0.00,,---,0.00,VWS V14.01,2013-07-11 10:31:00,
2013-07-11 02:32:00,38.8,37.5,30.10,SSE,147,0.0,0.0,95,0.00,,---,0.00,VWS V14.01,2013-07-11 10:32:00,
2013-07-11 02:34:00,38.7,37.4,30.10,SSE,147,0.0,0.0,95,0.00,,---,0.00,VWS V14.01,2013-07-11 10:34:00,
2013-07-11 02:35:00,38.6,37.3,30.10,SSE,147,0.0,0.0,95,0.00,,---,0.00,VWS V14.01,2013-07-11 10:35:00,
2013-07-11 02:37:00,38.6,37.3,30.10,SSE,147,0.0,0.0,95,0.00,,---,0.00,VWS V14.01,2013-07-11 10:37:00,
2013-07-11 02:39:00,38.5,37.2,30.10,SSE,147,0.0,0.0,95,0.00,,---,0.00,VWS V14.01,2013-07-11 10:39:00,
2013-07-11 02:40:00,38.5,37.2,30.10,SSE,147,0.0,0.0,95,0.00,,---,0.00,VWS V14.01,2013-07-11 10:40:00,
2013-07-11 02:41:00,38.4,37.1,30.10,SSE,147,0.0,0.0,95,0.00,,---,0.00,VWS V14.01,2013-07-11 10:41:00,
2013-07-11 02:42:00,38.4,37.1,30.10,SSE,147,0.0,0.0,95,0.00,,---,0.00,VWS V14.01,2013-07-11 10:42:00,
2013-07-11 02:44:00,38.3,37.0,30.09,SSE,147,0.0,0.0,95,0.00,,---,0.00,VWS V14.01,2013-07-11 10:44:00,
2013-07-11 02:45:00,38.3,37.0,30.09,SSE,147,0.0,0.0,95,0.00,,---,0.00,VWS V14.01,2013-07-11 10:45:00,
2013-07-11 02:46:00,38.3,37.0,30.09,SSE,147,0.0,0.0,95,0.00,,---,0.00,VWS V14.01,2013-07-11 10:46:00,
2013-07-11 02:47:00,38.3,37.3,30.09,SSE,147,0.0,0.0,96,0.00,,---,0.00,VWS V14.01,2013-07-11 10:47:00,
2013-07-11 02:48:00,38.3,37.3,30.09,SSE,147,0.0,0.0,96,0.00,,---,0.00,VWS V14.01,2013-07-11 10:48:00,
2013-07-11 02:49:00,38.3,37.3,30.09,SSE,147,0.0,0.0,96,0.00,,---,0.00,VWS V14.01,2013-07-11 10:49:00,
2013-07-11 02:50:00,38.3,37.3,30.09,SSE,147,0.0,0.0,96,0.00,,---,0.00,VWS V14.01,2013-07-11 10:50:00,
2013-07-11 02:51:00,38.3,37.3,30.09,SSE,147,0.0,0.0,96,0.00,,---,0.00,VWS V14.01,2013-07-11 10:51:00,
2013-07-11 02:52:00,38.2,37.2,30.09,SSE,147,0.0,0.0,96,0.00,,---,0.00,VWS V14.01,2013-07-11 10:52:00,
2013-07-11 02:53:00,38.2,37.2,30.09,SSE,147,0.0,0.0,96,0.00,,---,0.00,VWS V14.01,2013-07-11 10:53:00,
2013-07-11 02:55:00,38.1,37.1,30.09,SSE,147,0.0,0.0,96,0.00,,---,0.00,VWS V14.01,2013-07-11 10:55:00,
2013-07-11 02:56:00,38.1,36.8,30.09,SSE,147,0.0,0.0,95,0.00,,---,0.00,VWS V14.01,2013-07-11 10:56:00,
2013-07-11 02:58:00,38.1,36.8,30.09,SSE,147,0.0,0.0,95,0.00,,---,0.00,VWS V14.01,2013-07-11 10:58:00,
2013-07-11 03:00:00,38.0,36.7,30.09,SSE,147,0.0,0.0,95,0.00,,---,0.00,VWS V14.01,2013-07-11 11:00:00,
2013-07-11 03:01:00,38.0,36.7,30.09,SSE,147,0.0,0.0,95,0.00,,---,0.00,VWS V14.01,2013-07-11 11:01:00,
2013-07-11 03:03:00,37.9,36.6,30.09,SSE,147,0.0,0.0,95,0.00,,---,0.00,VWS V14.01,2013-07-11 11:03:00,
2013-07-11 03:05:00,37.8,36.5,30.09,SSE,147,0.0,0.0,95,0.00,,---,0.00,VWS V14.01,2013-07-11 11:05:00,
2013-07-11 03:06:00,37.8,36.5,30.09,SSE,147,0.0,0.0,95,0.00,,---,0.00,VWS V14.01,2013-07-11 11:06:00,
2013-07-11 03:08:00,37.7,36.4,30.09,SSE,147,0.0,0.0,95,0.00,,---,0.00,VWS V14.01,2013-07-11 11:08:00,
2013-07-11 03:10:00,37.7,36.7,30.09,SSE,147,0.0,0.0,96,0.00,,---,0.00,VWS V14.01,2013-07-11 11:10:00,
2013-07-11 03:12:00,37.7,36.7,30.09,SSE,147,0.0,0.0,96,0.00,,---,0.00,VWS V14.01,2013-07-11 11:12:00,
2013-07-11 03:13:00,37.6,36.6,30.09,SSE,147,0.0,0.0,96,0.00,,---,0.00,VWS V14.01,2013-07-11 11:13:00,
2013-07-11 03:14:00,37.6,36.6,30.09,SSE,147,0.0,0.0,96,0.00,,---,0.00,VWS V14.01,2013-07-11 11:14:00,
2013-07-11 03:15:00,37.6,36.6,30.09,SSE,147,0.0,0.0,96,0.00,,---,0.00,VWS V14.01,2013-07-11 11:15:00,
2013-07-11 03:18:00,37.5,36.5,30.09,SSE,147,0.0,0.0,96,0.00,,---,0.00,VWS V14.01,2013-07-11 11:18:00,
2013-07-11 03:19:00,37.5,36.5,30.09,SSE,147,0.0,0.0,96,0.00,,---,0.00,VWS V14.01,2013-07-11 11:19:00,
2013-07-11 03:20:00,37.4,36.4,30.09,SSE,147,0.0,0.0,96,0.00,,---,0.00,VWS V14.01,2013-07-11 11:20:00,
2013-07-11 03:23:00,37.3,36.3,30.09,SSE,147,0.0,0.0,96,0.00,,---,0.00,VWS V14.01,2013-07-11 11:23:00,
2013-07-11 03:24:00,37.3,36.3,30.09,SSE,147,0.0,0.0,96,0.00,,---,0.00,VWS V14.01,2013-07-11 11:24:00,
2013-07-11 03:25:00,37.2,35.9,30.09,SSE,147,0.0,0.0,95,0.00,,---,0.00,VWS V14.01,2013-07-11 11:25:00,
2013-07-11 03:29:00,37.1,35.8,30.09,SSE,147,0.0,0.0,95,0.00,,---,0.00,VWS V14.01,2013-07-11 11:29:00,
2013-07-11 03:30:00,37.0,35.7,30.09,SSE,147,0.0,0.0,95,0.00,,---,0.00,VWS V14.01,2013-07-11 11:30:00,
2013-07-11 03:31:00,37.0,35.7,30.09,SSE,147,0.0,0.0,95,0.00,,---,0.00,VWS V14.01,2013-07-11 11:31:00,
2013-07-11 03:34:00,36.9,35.6,30.09,SSE,147,0.0,0.0,95,0.00,,---,0.00,VWS V14.01,2013-07-11 11:34:00,
2013-07-11 03:35:00,36.8,35.5,30.09,SSE,147,0.0,0.0,95,0.00,,---,0.00,VWS V14.01,2013-07-11 11:35:00,
2013-07-11 03:36:00,36.8,35.5,30.09,SSE,147,0.0,0.0,95,0.00,,---,0.00,VWS V14.01,2013-07-11 11:36:00,
2013-07-11 03:39:00,36.7,35.4,30.09,SSE,147,0.0,0.0,95,0.00,,---,0.00,VWS V14.01,2013-07-11 11:39:00,
2013-07-11 03:40:00,36.7,35.4,30.09,SSE,147,0.0,0.0,95,0.00,,---,0.00,VWS V14.01,2013-07-11 11:40:00,
2013-07-11 03:41:00,36.7,35.7,30.09,SSE,147,0.0,0.0,96,0.00,,---,0.00,VWS V14.01,2013-07-11 11:41:00,
2013-07-11 03:44:00,36.6,35.6,30.09,SSE,147,0.0,0.0,96,0.00,,---,0.00,VWS V14.01,2013-07-11 11:44:00,
2013-07-11 03:45:00,36.6,35.6,30.09,SSE,147,0.0,0.0,96,0.00,,---,0.00,VWS V14.01,2013-07-11 11:45:00,
2013-07-11 03:46:00,36.6,35.6,30.09,SSE,147,0.0,0.0,96,0.00,,---,0.00,VWS V14.01,2013-07-11 11:46:00,
2013-07-11 03:50:00,36.6,35.6,30.09,SSE,147,0.0,0.0,96,0.00,,---,0.00,VWS V14.01,2013-07-11 11:50:00,
2013-07-11 03:51:00,36.6,35.6,30.09,SSE,147,0.0,0.0,96,0.00,,---,0.00,VWS V14.01,2013-07-11 11:51:00,
2013-07-11 03:55:00,36.6,35.6,30.09,SSE,147,0.0,0.0,96,0.00,,---,0.00,VWS V14.01,2013-07-11 11:55:00,
2013-07-11 03:56:00,36.6,35.6,30.09,SSE,147,0.0,0.0,96,0.00,,---,0.00,VWS V14.01,2013-07-11 11:56:00,
2013-07-11 04:00:00,36.7,35.7,30.09,SSE,147,0.0,0.0,96,0.00,,---,0.00,VWS V14.01,2013-07-11 12:00:00,
2013-07-11 04:01:00,36.7,35.7,30.09,SSE,147,0.0,0.0,96,0.00,,---,0.00,VWS V14.01,2013-07-11 12:01:00,
2013-07-11 04:02:00,36.7,35.7,30.09,SSE,147,0.0,0.0,96,0.00,,---,0.00,VWS V14.01,2013-07-11 12:02:00,
2013-07-11 04:05:00,36.8,35.8,30.09,SSE,147,0.0,0.0,96,0.00,,---,0.00,VWS V14.01,2013-07-11 12:05:00,
2013-07-11 04:06:00,36.8,35.8,30.09,SSE,147,0.0,0.0,96,0.00,,---,0.00,VWS V14.01,2013-07-11 12:06:00,
2013-07-11 04:07:00,36.8,35.8,30.09,SSE,147,0.0,0.0,96,0.00,,---,0.00,VWS V14.01,2013-07-11 12:07:00,
2013-07-11 04:10:00,36.8,35.8,30.09,SSE,147,0.0,0.0,96,0.00,,---,0.00,VWS V14.01,2013-07-11 12:10:00,
2013-07-11 04:11:00,36.8,35.8,30.09,SSE,147,0.0,0.0,96,0.00,,---,0.00,VWS V14.01,2013-07-11 12:11:00,
2013-07-11 04:12:00,36.8,35.8,30.09,SSE,147,0.0,0.0,96,0.00,,---,0.00,VWS V14.01,2013-07-11 12:12:00,
2013-07-11 04:16:00,36.8,35.8,30.09,SSE,147,0.0,0.0,96,0.00,,---,0.00,VWS V14.01,2013-07-11 12:16:00,
2013-07-11 04:17:00,36.9,35.9,30.09,SSE,147,0.0,0.0,96,0.00,,---,0.00,VWS V14.01,2013-07-11 12:17:00,
2013-07-11 04:21:00,37.0,36.2,30.09,SSE,147,0.0,0.0,97,0.00,,---,0.00,VWS V14.01,2013-07-11 12:21:00,
2013-07-11 04:22:00,37.0,36.2,30.09,SSE,147,0.0,0.0,97,0.00,,---,0.00,VWS V14.01,2013-07-11 12:22:00,
2013-07-11 04:26:00,37.0,36.2,30.09,SSE,147,0.0,0.0,97,0.00,,---,0.00,VWS V14.01,2013-07-11 12:26:00,
2013-07-11 04:27:00,37.0,36.2,30.09,SSE,147,0.0,0.0,97,0.00,,---,0.00,VWS V14.01,2013-07-11 12:27:00,
2013-07-11 04:28:00,37.0,36.0,30.09,SSE,147,0.0,0.0,96,0.00,,---,0.00,VWS V14.01,2013-07-11 12:28:00,
2013-07-11 04:31:00,37.0,36.2,30.09,SSE,147,0.0,0.0,97,0.00,,---,0.00,VWS V14.01,2013-07-11 12:31:00,
2013-07-11 04:32:00,37.0,36.2,30.09,SSE,147,0.0,0.0,97,0.00,,---,0.00,VWS V14.01,2013-07-11 12:32:00,
2013-07-11 04:33:00,37.0,36.2,30.09,SSE,147,0.0,0.0,97,0.00,,---,0.00,VWS V14.01,2013-07-11 12:33:00,
2013-07-11 04:36:00,37.0,36.2,30.09,SSE,147,0.0,0.0,97,0.00,,---,0.00,VWS V14.01,2013-07-11 12:36:00,
2013-07-11 04:37:00,37.0,36.2,30.09,SSE,147,0.0,0.0,97,0.00,,---,0.00,VWS V14.01,2013-07-11 12:37:00,
2013-07-11 04:38:00,37.0,36.2,30.09,SSE,147,0.0,0.0,97,0.00,,---,0.00,VWS V14.01,2013-07-11 12:38:00,
2013-07-11 04:41:00,36.9,36.1,30.09,SSE,147,0.0,0.0,97,0.00,,---,0.00,VWS V14.01,2013-07-11 12:41:00,
2013-07-11 04:42:00,36.9,35.9,30.09,SSE,147,0.0,0.0,96,0.00,,---,0.00,VWS V14.01,2013-07-11 12:42:00,
2013-07-11 04:43:00,36.9,35.9,30.09,SSE,147,0.0,0.0,96,0.00,,---,0.00,VWS V14.01,2013-07-11 12:43:00,
2013-07-11 04:46:00,36.9,35.9,30.09,SSE,147,0.0,0.0,96,0.00,,---,0.00,VWS V14.01,2013-07-11 12:46:00,
2013-07-11 04:47:00,36.8,35.8,30.09,SSE,147,0.0,0.0,96,0.00,,---,0.00,VWS V14.01,2013-07-11 12:47:00,
2013-07-11 04:48:00,36.9,35.9,30.09,SSE,147,0.0,0.0,96,0.00,,---,0.00,VWS V14.01,2013-07-11 12:48:00,
2013-07-11 04:52:00,36.9,35.9,30.09,SSE,147,0.0,0.0,96,0.00,,---,0.00,VWS V14.01,2013-07-11 12:52:00,
2013-07-11 04:53:00,36.9,36.1,30.09,SSE,147,0.0,0.0,97,0.00,,---,0.00,VWS V14.01,2013-07-11 12:53:00,
2013-07-11 04:54:00,36.9,36.1,30.09,SSE,147,0.0,0.0,97,0.00,,---,0.00,VWS V14.01,2013-07-11 12:54:00,
2013-07-11 04:57:00,36.9,36.1,30.09,SSE,147,0.0,0.0,97,0.00,,---,0.00,VWS V14.01,2013-07-11 12:57:00,
2013-07-11 04:58:00,36.9,36.1,30.09,SSE,147,0.0,0.0,97,0.00,,---,0.00,VWS V14.01,2013-07-11 12:58:00,
2013-07-11 04:59:00,36.9,36.1,30.09,SSE,147,0.0,1.0,97,0.00,,---,0.00,VWS V14.01,2013-07-11 12:59:00,
2013-07-11 05:02:00,36.9,36.1,30.09,SSE,147,1.0,2.0,97,0.00,,---,0.00,VWS V14.01,2013-07-11 13:02:00,
2013-07-11 05:04:00,36.8,36.0,30.09,SSE,147,0.0,2.0,97,0.00,,---,0.00,VWS V14.01,2013-07-11 13:04:00,
2013-07-11 05:07:00,36.7,35.9,30.09,SSE,147,0.0,0.0,97,0.00,,---,0.00,VWS V14.01,2013-07-11 13:07:00,
2013-07-11 05:09:00,36.6,35.6,30.09,SSE,147,0.0,0.0,96,0.00,,---,0.00,VWS V14.01,2013-07-11 13:09:00,
2013-07-11 05:13:00,36.5,35.5,30.09,SSE,147,0.0,1.0,96,0.00,,---,0.00,VWS V14.01,2013-07-11 13:13:00,
2013-07-11 05:14:00,36.4,35.4,30.09,SSE,147,0.0,1.0,96,0.00,,---,0.00,VWS V14.01,2013-07-11 13:14:00,
2013-07-11 05:15:00,36.4,35.4,30.09,SSE,147,0.0,1.0,96,0.00,,---,0.00,VWS V14.01,2013-07-11 13:15:00,
2013-07-11 05:18:00,36.3,35.5,30.09,SSE,147,0.0,0.0,97,0.00,,---,0.00,VWS V14.01,2013-07-11 13:18:00,
2013-07-11 05:19:00,36.3,35.3,30.09,SSE,147,0.0,0.0,96,0.00,,---,0.00,VWS V14.01,2013-07-11 13:19:00,
2013-07-11 05:20:00,36.3,35.3,30.09,SSE,147,0.0,0.0,96,0.00,,---,0.00,VWS V14.01,2013-07-11 13:20:00,
2013-07-11 05:21:00,36.3,35.3,30.09,SSE,147,0.0,0.0,96,0.00,,---,0.00,VWS V14.01,2013-07-11 13:21:00,
2013-07-11 05:23:00,36.3,35.5,30.09,SSE,147,0.0,1.0,97,0.00,,---,0.00,VWS V14.01,2013-07-11 13:23:00,
2013-07-11 05:25:00,36.3,35.5,30.09,SSE,147,0.0,1.0,97,0.00,,---,0.00,VWS V14.01,2013-07-11 13:25:00,
2013-07-11 05:26:00,36.2,35.4,30.09,SSE,147,0.0,1.0,97,0.00,,---,0.00,VWS V14.01,2013-07-11 13:26:00,
2013-07-11 05:28:00,36.3,35.5,30.08,SSE,147,0.0,0.0,97,0.00,,---,0.00,VWS V14.01,2013-07-11 13:28:00,
2013-07-11 05:31:00,36.3,35.5,30.09,SSE,147,0.0,0.0,97,0.00,,---,0.00,VWS V14.01,2013-07-11 13:31:00,
2013-07-11 05:33:00,36.3,35.5,30.09,SSE,147,0.0,2.0,97,0.00,,---,0.00,VWS V14.01,2013-07-11 13:33:00,
2013-07-11 05:36:00,36.4,35.6,30.08,SSE,147,0.0,0.0,97,0.00,,---,0.00,VWS V14.01,2013-07-11 13:36:00,
2013-07-11 05:37:00,36.4,35.6,30.08,SSE,147,0.0,0.0,97,0.00,,---,0.00,VWS V14.01,2013-07-11 13:37:00,
2013-07-11 05:38:00,36.3,35.5,30.08,SSE,147,0.0,0.0,97,0.00,,---,0.00,VWS V14.01,2013-07-11 13:38:00,
2013-07-11 05:41:00,36.2,35.4,30.08,SSE,147,0.0,0.0,97,0.00,,---,0.00,VWS V14.01,2013-07-11 13:41:00,
2013-07-11 05:42:00,36.2,35.4,30.08,SSE,147,0.0,0.0,97,0.00,,---,0.00,VWS V14.01,2013-07-11 13:42:00,
2013-07-11 05:45:00,36.2,35.4,30.08,SSE,147,0.0,0.0,97,0.00,,---,0.00,VWS V14.01,2013-07-11 13:45:00,
2013-07-11 05:47:00,36.2,35.4,30.09,SSE,147,0.0,0.0,97,0.00,,---,0.00,VWS V14.01,2013-07-11 13:47:00,
2013-07-11 05:48:00,36.2,35.4,30.09,SSE,147,0.0,0.0,97,0.00,,---,0.00,VWS V14.01,2013-07-11 13:48:00,
2013-07-11 05:50:00,36.3,35.5,30.09,SSE,147,1.0,2.0,97,0.00,,---,0.00,VWS V14.01,2013-07-11 13:50:00,
2013-07-11 05:52:00,36.3,35.5,30.09,SSE,147,0.0,2.0,97,0.00,,---,0.00,VWS V14.01,2013-07-11 13:52:00,
2013-07-11 05:53:00,36.2,35.4,30.08,SSE,147,0.0,2.0,97,0.00,,---,0.00,VWS V14.01,2013-07-11 13:53:00,
2013-07-11 05:56:00,36.2,35.4,30.08,WSW,251,1.0,2.0,97,0.00,,---,0.00,VWS V14.01,2013-07-11 13:56:00,
2013-07-11 05:57:00,36.3,35.5,30.08,WSW,251,0.0,2.0,97,0.00,,---,0.00,VWS V14.01,2013-07-11 13:57:00,
2013-07-11 05:58:00,36.3,35.5,30.08,WSW,251,0.0,2.0,97,0.00,,---,0.00,VWS V14.01,2013-07-11 13:58:00,
2013-07-11 06:01:00,36.5,35.7,30.08,WSW,251,0.0,2.0,97,0.00,,---,0.00,VWS V14.01,2013-07-11 14:01:00,
2013-07-11 06:03:00,36.6,35.8,30.08,West,259,2.0,2.0,97,0.00,,---,0.00,VWS V14.01,2013-07-11 14:03:00,
2013-07-11 06:06:00,36.9,36.4,30.08,WNW,294,0.0,4.0,98,0.00,,---,0.00,VWS V14.01,2013-07-11 14:06:00,
2013-07-11 06:08:00,37.2,36.7,30.08,WNW,294,0.0,0.0,98,0.00,,---,0.00,VWS V14.01,2013-07-11 14:08:00,
2013-07-11 06:09:00,37.3,36.8,30.08,WNW,294,0.0,0.0,98,0.00,,---,0.00,VWS V14.01,2013-07-11 14:09:00,
2013-07-11 06:11:00,37.5,37.0,30.08,WNW,294,0.0,0.0,98,0.00,,---,0.00,VWS V14.01,2013-07-11 14:11:00,
2013-07-11 06:13:00,37.7,37.2,30.08,WNW,294,0.0,0.0,98,0.00,,---,0.00,VWS V14.01,2013-07-11 14:13:00,
2013-07-11 06:14:00,37.7,37.2,30.08,WNW,294,0.0,0.0,98,0.00,,---,0.00,VWS V14.01,2013-07-11 14:14:00,
2013-07-11 06:16:00,37.8,37.3,30.08,WNW,294,0.0,0.0,98,0.00,,---,0.00,VWS V14.01,2013-07-11 14:16:00,
2013-07-11 06:18:00,37.9,37.4,30.08,WNW,294,0.0,1.0,98,0.00,,---,0.00,VWS V14.01,2013-07-11 14:18:00,
2013-07-11 06:19:00,37.9,37.4,30.08,WNW,294,0.0,1.0,98,0.00,,---,0.00,VWS V14.01,2013-07-11 14:19:00,
2013-07-11 06:22:00,37.9,37.4,30.09,WNW,294,0.0,0.0,98,0.00,,---,0.00,VWS V14.01,2013-07-11 14:22:00,
2013-07-11 06:24:00,37.9,37.4,30.08,WNW,294,0.0,1.0,98,0.00,,---,0.00,VWS V14.01,2013-07-11 14:24:00,
2013-07-11 06:26:00,38.0,37.5,30.08,WNW,294,0.0,0.0,98,0.00,,---,0.00,VWS V14.01,2013-07-11 14:26:00,
2013-07-11 06:27:00,37.9,37.4,30.08,WNW,294,0.0,1.0,98,0.00,,---,0.00,VWS V14.01,2013-07-11 14:27:00,
2013-07-11 06:29:00,38.0,37.2,30.09,WNW,294,0.0,1.0,97,0.00,,---,0.00,VWS V14.01,2013-07-11 14:29:00,
2013-07-11 06:30:00,38.0,37.2,30.08,WNW,294,0.0,1.0,97,0.00,,---,0.00,VWS V14.01,2013-07-11 14:30:00,
2013-07-11 06:32:00,38.0,37.2,30.09,WNW,294,0.0,0.0,97,0.00,,---,0.00,VWS V14.01,2013-07-11 14:32:00,
2013-07-11 06:34:00,38.0,37.2,30.09,WNW,294,0.0,0.0,97,0.00,,---,0.00,VWS V14.01,2013-07-11 14:34:00,
2013-07-11 06:35:00,38.0,37.2,30.09,WNW,294,0.0,0.0,97,0.00,,---,0.00,VWS V14.01,2013-07-11 14:35:00,
2013-07-11 06:37:00,38.1,37.6,30.08,WNW,294,0.0,1.0,98,0.00,,---,0.00,VWS V14.01,2013-07-11 14:37:00,
2013-07-11 06:39:00,38.2,37.7,30.08,WNW,294,0.0,1.0,98,0.00,,---,0.00,VWS V14.01,2013-07-11 14:39:00,
2013-07-11 06:40:00,38.2,37.7,30.08,WNW,294,0.0,1.0,98,0.00,,---,0.00,VWS V14.01,2013-07-11 14:40:00,
2013-07-11 06:43:00,38.3,37.8,30.08,WNW,294,0.0,0.0,98,0.00,,---,0.00,VWS V14.01,2013-07-11 14:43:00,
2013-07-11 06:44:00,38.4,37.9,30.08,WNW,294,0.0,0.0,98,0.00,,---,0.00,VWS V14.01,2013-07-11 14:44:00,
2013-07-11 06:45:00,38.4,37.9,30.08,WNW,294,0.0,0.0,98,0.00,,---,0.00,VWS V14.01,2013-07-11 14:45:00,
2013-07-11 06:48:00,38.6,38.1,30.08,WNW,294,0.0,1.0,98,0.00,,---,0.00,VWS V14.01,2013-07-11 14:48:00,
2013-07-11 06:49:00,38.7,38.2,30.08,WNW,294,0.0,1.0,98,0.00,,---,0.00,VWS V14.01,2013-07-11 14:49:00,
2013-07-11 06:50:00,38.7,38.2,30.08,WNW,294,0.0,1.0,98,0.00,,---,0.00,VWS V14.01,2013-07-11 14:50:00,
2013-07-11 06:53:00,38.8,38.3,30.08,WNW,294,0.0,0.0,98,0.00,,---,0.00,VWS V14.01,2013-07-11 14:53:00,
2013-07-11 06:54:00,38.9,38.4,30.08,WNW,294,0.0,0.0,98,0.00,,---,0.00,VWS V14.01,2013-07-11 14:54:00,
2013-07-11 06:55:00,38.9,38.4,30.08,WNW,294,0.0,0.0,98,0.00,,---,0.00,VWS V14.01,2013-07-11 14:55:00,
2013-07-11 06:56:00,38.9,38.4,30.08,WNW,294,0.0,0.0,98,0.00,,---,0.00,VWS V14.01,2013-07-11 14:56:00,
2013-07-11 07:00:00,39.2,38.7,30.08,WNW,294,0.0,0.0,98,0.00,,---,0.00,VWS V14.01,2013-07-11 15:00:00,
2013-07-11 07:01:00,39.2,38.7,30.08,WNW,294,0.0,0.0,98,0.00,,---,0.00,VWS V14.01,2013-07-11 15:01:00,
2013-07-11 07:05:00,39.4,38.9,30.08,WNW,294,0.0,2.0,98,0.00,,---,0.00,VWS V14.01,2013-07-11 15:05:00,
2013-07-11 07:06:00,39.4,38.9,30.08,WNW,294,0.0,2.0,98,0.00,,---,0.00,VWS V14.01,2013-07-11 15:06:00,
2013-07-11 07:10:00,39.6,39.1,30.08,WNW,294,0.0,0.0,98,0.00,,---,0.00,VWS V14.01,2013-07-11 15:10:00,
2013-07-11 07:11:00,39.6,39.1,30.08,WNW,294,0.0,0.0,98,0.00,,---,0.00,VWS V14.01,2013-07-11 15:11:00,
2013-07-11 07:15:00,39.8,39.3,30.08,WNW,294,0.0,0.0,98,0.00,,---,0.00,VWS V14.01,2013-07-11 15:15:00,
2013-07-11 07:16:00,39.8,39.3,30.08,WNW,294,0.0,0.0,98,0.00,,---,0.00,VWS V14.01,2013-07-11 15:16:00,
2013-07-11 07:17:00,39.9,39.4,30.08,WNW,294,0.0,0.0,98,0.00,,---,0.00,VWS V14.01,2013-07-11 15:17:00,
2013-07-11 07:21:00,40.2,39.7,30.08,WNW,294,0.0,0.0,98,0.00,,---,0.00,VWS V14.01,2013-07-11 15:21:00,
2013-07-11 07:22:00,40.2,39.7,30.08,WNW,294,0.0,0.0,98,0.00,,---,0.00,VWS V14.01,2013-07-11 15:22:00,
2013-07-11 07:26:00,40.7,40.2,30.08,WNW,294,0.0,0.0,98,0.00,,---,0.00,VWS V14.01,2013-07-11 15:26:00,
2013-07-11 07:27:00,40.8,40.3,30.08,WNW,294,0.0,0.0,98,0.00,,---,0.00,VWS V14.01,2013-07-11 15:27:00,
2013-07-11 07:28:00,40.9,40.4,30.08,WNW,294,0.0,0.0,98,0.00,,---,0.00,VWS V14.01,2013-07-11 15:28:00,
2013-07-11 07:32:00,41.2,40.7,30.08,WNW,294,0.0,0.0,98,0.00,,---,0.00,VWS V14.01,2013-07-11 15:32:00,
2013-07-11 07:33:00,41.3,40.8,30.08,WNW,294,0.0,1.0,98,0.00,,---,0.00,VWS V14.01,2013-07-11 15:33:00,
2013-07-11 07:37:00,41.5,41.0,30.08,WNW,294,0.0,0.0,98,0.00,,---,0.00,VWS V14.01,2013-07-11 15:37:00,
2013-07-11 07:38:00,41.5,41.0,30.08,WNW,294,0.0,0.0,98,0.00,,---,0.00,VWS V14.01,2013-07-11 15:38:00,
2013-07-11 07:42:00,41.8,41.3,30.08,WNW,294,0.0,0.0,98,0.00,,---,0.00,VWS V14.01,2013-07-11 15:42:00,
2013-07-11 07:44:00,41.9,41.4,30.08,WNW,294,0.0,0.0,98,0.00,,---,0.00,VWS V14.01,2013-07-11 15:44:00,
2013-07-11 07:47:00,42.2,41.7,30.08,WNW,294,0.0,0.0,98,0.00,,---,0.00,VWS V14.01,2013-07-11 15:47:00,
2013-07-11 07:48:00,42.2,41.7,30.08,WNW,294,0.0,0.0,98,0.00,,---,0.00,VWS V14.01,2013-07-11 15:48:00,
2013-07-11 07:49:00,42.3,41.8,30.08,WNW,294,0.0,0.0,98,0.00,,---,0.00,VWS V14.01,2013-07-11 15:49:00,
2013-07-11 07:53:00,42.5,42.0,30.08,WNW,294,0.0,0.0,98,0.00,,---,0.00,VWS V14.01,2013-07-11 15:53:00,
2013-07-11 07:54:00,42.6,42.1,30.08,WNW,294,0.0,0.0,98,0.00,,---,0.00,VWS V14.01,2013-07-11 15:54:00,
2013-07-11 07:55:00,42.7,42.2,30.08,WNW,294,0.0,0.0,98,0.00,,---,0.00,VWS V14.01,2013-07-11 15:55:00,
2013-07-11 07:58:00,42.9,42.4,30.08,WNW,294,0.0,0.0,98,0.00,,---,0.00,VWS V14.01,2013-07-11 15:58:00,
2013-07-11 07:59:00,42.9,42.4,30.08,WNW,294,0.0,0.0,98,0.00,,---,0.00,VWS V14.01,2013-07-11 15:59:00,
2013-07-11 08:00:00,42.9,42.4,30.08,WNW,294,0.0,0.0,98,0.00,,---,0.00,VWS V14.01,2013-07-11 16:00:00,
2013-07-11 08:03:00,43.1,42.6,30.07,WNW,294,0.0,0.0,98,0.00,,---,0.00,VWS V14.01,2013-07-11 16:03:00,
2013-07-11 08:05:00,43.2,42.7,30.08,WNW,294,0.0,0.0,98,0.00,,---,0.00,VWS V14.01,2013-07-11 16:05:00,
2013-07-11 08:06:00,43.2,42.7,30.08,WNW,294,0.0,0.0,98,0.00,,---,0.00,VWS V14.01,2013-07-11 16:06:00,
2013-07-11 08:09:00,43.3,42.8,30.07,WNW,294,0.0,0.0,98,0.00,,---,0.00,VWS V14.01,2013-07-11 16:09:00,
2013-07-11 08:10:00,43.4,42.9,30.07,WNW,294,0.0,0.0,98,0.00,,---,0.00,VWS V14.01,2013-07-11 16:10:00,
2013-07-11 08:11:00,43.4,42.9,30.07,WNW,294,0.0,0.0,98,0.00,,---,0.00,VWS V14.01,2013-07-11 16:11:00,
2013-07-11 08:14:00,43.5,43.0,30.07,WNW,294,0.0,0.0,98,0.00,,---,0.00,VWS V14.01,2013-07-11 16:14:00,
2013-07-11 08:15:00,43.6,43.1,30.07,WNW,294,0.0,0.0,98,0.00,,---,0.00,VWS V14.01,2013-07-11 16:15:00,
2013-07-11 08:16:00,43.7,43.2,30.07,WNW,294,0.0,0.0,98,0.00,,---,0.00,VWS V14.01,2013-07-11 16:16:00,
2013-07-11 08:19:00,43.9,43.4,30.07,WNW,294,0.0,0.0,98,0.00,,---,0.00,VWS V14.01,2013-07-11 16:19:00,
2013-07-11 08:21:00,44.0,43.5,30.07,WNW,294,0.0,0.0,98,0.00,,---,0.00,VWS V14.01,2013-07-11 16:21:00,
2013-07-11 08:22:00,44.1,43.6,30.07,WNW,294,0.0,0.0,98,0.00,,---,0.00,VWS V14.01,2013-07-11 16:22:00,
2013-07-11 08:24:00,44.3,43.8,30.07,WNW,294,0.0,0.0,98,0.00,,---,0.00,VWS V14.01,2013-07-11 16:24:00,
2013-07-11 08:26:00,44.5,44.0,30.07,WNW,294,0.0,0.0,98,0.00,,---,0.00,VWS V14.01,2013-07-11 16:26:00,
2013-07-11 08:28:00,44.7,44.2,30.07,WNW,294,0.0,0.0,98,0.00,,---,0.00,VWS V14.01,2013-07-11 16:28:00,
2013-07-11 08:29:00,44.8,44.3,30.07,WNW,294,0.0,1.0,98,0.00,,---,0.00,VWS V14.01,2013-07-11 16:29:00,
2013-07-11 08:32:00,44.9,44.4,30.07,WNW,294,0.0,0.0,98,0.00,,---,0.00,VWS V14.01,2013-07-11 16:32:00,
2013-07-11 08:34:00,45.0,44.5,30.07,WNW,294,0.0,0.0,98,0.00,,---,0.00,VWS V14.01,2013-07-11 16:34:00,
2013-07-11 08:35:00,45.1,44.6,30.07,WNW,294,0.0,0.0,98,0.00,,---,0.00,VWS V14.01,2013-07-11 16:35:00,
2013-07-11 08:37:00,45.3,44.8,30.07,WNW,294,2.0,2.0,98,0.00,,---,0.00,VWS V14.01,2013-07-11 16:37:00,
2013-07-11 08:38:00,45.3,44.8,30.07,WNW,294,0.0,2.0,98,0.00,,---,0.00,VWS V14.01,2013-07-11 16:38:00,
2013-07-11 08:40:00,45.6,45.1,30.07,WNW,294,0.0,2.0,98,0.00,,---,0.00,VWS V14.01,2013-07-11 16:40:00,
2013-07-11 08:42:00,45.7,45.2,30.07,WNW,294,0.0,0.0,98,0.00,,---,0.00,VWS V14.01,2013-07-11 16:42:00,
2013-07-11 08:43:00,45.9,45.4,30.07,WNW,294,0.0,0.0,98,0.00,,---,0.00,VWS V14.01,2013-07-11 16:43:00,
2013-07-11 08:45:00,46.1,45.6,30.07,WNW,294,0.0,0.0,98,0.00,,---,0.00,VWS V14.01,2013-07-11 16:45:00,
2013-07-11 08:46:00,46.1,45.6,30.07,WNW,294,0.0,0.0,98,0.00,,---,0.00,VWS V14.01,2013-07-11 16:46:00,
2013-07-11 08:47:00,46.2,45.7,30.07,WNW,294,0.0,0.0,98,0.00,,---,0.00,VWS V14.01,2013-07-11 16:47:00,
2013-07-11 08:48:00,46.4,45.9,30.07,WNW,294,0.0,0.0,98,0.00,,---,0.00,VWS V14.01,2013-07-11 16:48:00,
2013-07-11 08:51:00,46.7,46.2,30.07,WNW,294,0.0,0.0,98,0.00,,---,0.00,VWS V14.01,2013-07-11 16:51:00,
2013-07-11 08:52:00,46.8,46.3,30.07,WNW,294,0.0,0.0,98,0.00,,---,0.00,VWS V14.01,2013-07-11 16:52:00,
2013-07-11 08:54:00,47.0,46.5,30.07,WNW,294,0.0,0.0,98,0.00,,---,0.00,VWS V14.01,2013-07-11 16:54:00,
2013-07-11 08:56:00,47.2,46.9,30.07,WNW,294,0.0,2.0,99,0.00,,---,0.00,VWS V14.01,2013-07-11 16:56:00,
2013-07-11 08:57:00,47.3,47.0,30.07,WNW,294,0.0,2.0,99,0.00,,---,0.00,VWS V14.01,2013-07-11 16:57:00,
2013-07-11 08:59:00,47.4,46.9,30.07,WNW,294,0.0,3.0,98,0.00,,---,0.00,VWS V14.01,2013-07-11 16:59:00,
2013-07-11 09:01:00,47.6,47.1,30.07,WNW,294,0.0,0.0,98,0.00,,---,0.00,VWS V14.01,2013-07-11 17:01:00,
2013-07-11 09:02:00,47.6,47.1,30.07,WNW,294,0.0,0.0,98,0.00,,---,0.00,VWS V14.01,2013-07-11 17:02:00,
2013-07-11 09:04:00,47.7,47.2,30.07,WNW,294,0.0,1.0,98,0.00,,---,0.00,VWS V14.01,2013-07-11 17:04:00,
2013-07-11 09:06:00,47.9,47.4,30.07,WNW,294,0.0,0.0,98,0.00,,---,0.00,VWS V14.01,2013-07-11 17:06:00,
2013-07-11 09:07:00,47.9,47.4,30.07,WNW,294,0.0,0.0,98,0.00,,---,0.00,VWS V14.01,2013-07-11 17:07:00,
2013-07-11 09:09:00,48.1,47.6,30.07,WNW,294,0.0,1.0,98,0.00,,---,0.00,VWS V14.01,2013-07-11 17:09:00,
2013-07-11 09:12:00,48.3,47.8,30.06,WNW,294,0.0,0.0,98,0.00,,---,0.00,VWS V14.01,2013-07-11 17:12:00,
2013-07-11 09:13:00,48.4,47.9,30.06,WNW,294,0.0,0.0,98,0.00,,---,0.00,VWS V14.01,2013-07-11 17:13:00,
2013-07-11 09:15:00,48.6,48.1,30.07,WNW,294,0.0,0.0,98,0.00,,---,0.00,VWS V14.01,2013-07-11 17:15:00,
2013-07-11 09:17:00,48.8,48.0,30.06,WNW,294,0.0,1.0,97,0.00,,---,0.00,VWS V14.01,2013-07-11 17:17:00,
2013-07-11 09:18:00,48.8,48.0,30.06,WNW,294,1.0,2.0,97,0.00,,---,0.00,VWS V14.01,2013-07-11 17:18:00,
2013-07-11 09:20:00,48.9,48.1,30.06,WNW,294,0.0,2.0,97,0.00,,---,0.00,VWS V14.01,2013-07-11 17:20:00,
2013-07-11 09:23:00,49.0,48.2,30.06,WNW,294,0.0,1.0,97,0.00,,---,0.00,VWS V14.01,2013-07-11 17:23:00,
2013-07-11 09:25:00,49.2,48.1,30.06,WNW,294,0.0,1.0,96,0.00,,---,0.00,VWS V14.01,2013-07-11 17:25:00,
2013-07-11 09:28:00,49.4,48.3,30.06,WNW,294,0.0,1.0,96,0.00,,---,0.00,VWS V14.01,2013-07-11 17:28:00,
2013-07-11 09:29:00,49.4,48.3,30.06,WNW,294,0.0,1.0,96,0.00,,---,0.00,VWS V14.01,2013-07-11 17:29:00,
2013-07-11 09:31:00,49.5,48.4,30.06,WNW,294,0.0,0.0,96,0.00,,---,0.00,VWS V14.01,2013-07-11 17:31:00,
2013-07-11 09:34:00,49.7,48.3,30.06,WNW,294,0.0,0.0,95,0.00,,---,0.00,VWS V14.01,2013-07-11 17:34:00,
2013-07-11 09:35:00,49.7,48.3,30.06,WNW,294,0.0,0.0,95,0.00,,---,0.00,VWS V14.01,2013-07-11 17:35:00,
2013-07-11 09:36:00,49.8,48.4,30.06,WNW,294,0.0,0.0,95,0.00,,---,0.00,VWS V14.01,2013-07-11 17:36:00,
2013-07-11 09:40:00,50.0,48.6,30.06,WNW,294,0.0,1.0,95,0.00,,---,0.00,VWS V14.01,2013-07-11 17:40:00,
2013-07-11 09:42:00,50.0,48.3,30.06,WNW,294,1.0,1.0,94,0.00,,---,0.00,VWS V14.01,2013-07-11 17:42:00,
2013-07-11 09:46:00,50.1,48.2,30.06,WNW,294,0.0,3.0,93,0.00,,---,0.00,VWS V14.01,2013-07-11 17:46:00,
2013-07-11 09:47:00,50.2,48.3,30.06,WNW,294,0.0,0.0,93,0.00,,---,0.00,VWS V14.01,2013-07-11 17:47:00,
2013-07-11 09:51:00,50.5,48.6,30.05,WNW,294,0.0,0.0,93,0.00,,---,0.00,VWS V14.01,2013-07-11 17:51:00,
2013-07-11 09:52:00,50.5,48.6,30.06,WNW,294,0.0,0.0,93,0.00,,---,0.00,VWS V14.01,2013-07-11 17:52:00,
2013-07-11 09:53:00,50.6,48.7,30.06,WNW,294,0.0,0.0,93,0.00,,---,0.00,VWS V14.01,2013-07-11 17:53:00,
2013-07-11 09:56:00,50.9,49.0,30.06,WNW,294,0.0,0.0,93,0.00,,---,0.00,VWS V14.01,2013-07-11 17:56:00,
2013-07-11 09:57:00,50.9,49.0,30.06,WNW,294,0.0,1.0,93,0.00,,---,0.00,VWS V14.01,2013-07-11 17:57:00,
2013-07-11 09:58:00,51.1,49.2,30.05,WNW,294,0.0,1.0,93,0.00,,---,0.00,VWS V14.01,2013-07-11 17:58:00,
2013-07-11 10:02:00,51.4,49.2,30.06,WNW,294,0.0,0.0,92,0.00,,---,0.00,VWS V14.01,2013-07-11 18:02:00,
2013-07-11 10:03:00,51.5,49.3,30.05,WNW,294,0.0,0.0,92,0.00,,---,0.00,VWS V14.01,2013-07-11 18:03:00,
2013-07-11 10:07:00,51.7,48.9,30.06,WNW,294,0.0,0.0,90,0.00,,---,0.00,VWS V14.01,2013-07-11 18:07:00,
2013-07-11 10:08:00,51.8,48.7,30.06,WNW,294,0.0,0.0,89,0.00,,---,0.00,VWS V14.01,2013-07-11 18:08:00,
2013-07-11 10:13:00,52.1,49.0,30.05,WNW,294,0.0,0.0,89,0.00,,---,0.00,VWS V14.01,2013-07-11 18:13:00,
2013-07-11 10:14:00,52.1,49.0,30.05,WNW,294,0.0,1.0,89,0.00,,---,0.00,VWS V14.01,2013-07-11 18:14:00,
2013-07-11 10:18:00,52.6,49.5,30.05,WNW,294,2.0,3.0,89,0.00,,---,0.00,VWS V14.01,2013-07-11 18:18:00,
2013-07-11 10:19:00,52.6,49.5,30.05,WNW,294,0.0,3.0,89,0.00,,---,0.00,VWS V14.01,2013-07-11 18:19:00,
2013-07-11 10:23:00,53.0,49.2,30.05,WNW,294,0.0,2.0,87,0.00,,---,0.00,VWS V14.01,2013-07-11 18:23:00,
2013-07-11 10:24:00,53.2,49.4,30.05,WNW,294,0.0,2.0,87,0.00,,---,0.00,VWS V14.01,2013-07-11 18:24:00,
2013-07-11 10:25:00,53.2,49.4,30.05,WNW,294,0.0,2.0,87,0.00,,---,0.00,VWS V14.01,2013-07-11 18:25:00,
2013-07-11 10:28:00,53.5,49.1,30.05,WNW,294,0.0,0.0,85,0.00,,---,0.00,VWS V14.01,2013-07-11 18:28:00,
2013-07-11 10:29:00,53.6,48.9,30.05,WNW,294,0.0,0.0,84,0.00,,---,0.00,VWS V14.01,2013-07-11 18:29:00,
2013-07-11 10:30:00,53.7,49.0,30.05,WNW,294,2.0,2.0,84,0.00,,---,0.00,VWS V14.01,2013-07-11 18:30:00,
2013-07-11 10:34:00,54.0,49.3,30.05,WNW,294,1.0,3.0,84,0.00,,---,0.00,VWS V14.01,2013-07-11 18:34:00,
2013-07-11 10:35:00,54.1,49.1,30.05,WNW,294,0.0,3.0,83,0.00,,---,0.00,VWS V14.01,2013-07-11 18:35:00,
2013-07-11 10:39:00,54.5,49.1,30.05,WNW,294,0.0,3.0,82,0.00,,---,0.00,VWS V14.01,2013-07-11 18:39:00,
2013-07-11 10:40:00,54.5,49.1,30.05,WNW,294,0.0,3.0,82,0.00,,---,0.00,VWS V14.01,2013-07-11 18:40:00,
2013-07-11 10:41:00,54.6,48.9,30.05,WNW,294,0.0,3.0,81,0.00,,---,0.00,VWS V14.01,2013-07-11 18:41:00,
2013-07-11 10:44:00,54.9,49.8,30.05,WNW,294,0.0,2.0,83,0.00,,---,0.00,VWS V14.01,2013-07-11 18:44:00,
2013-07-11 10:45:00,54.9,49.8,30.05,WNW,294,0.0,2.0,83,0.00,,---,0.00,VWS V14.01,2013-07-11 18:45:00,
2013-07-11 10:46:00,55.1,50.0,30.05,WNW,294,2.0,2.0,83,0.00,,---,0.00,VWS V14.01,2013-07-11 18:46:00,
2013-07-11 10:49:00,55.4,50.3,30.05,WNW,294,0.0,2.0,83,0.00,,---,0.00,VWS V14.01,2013-07-11 18:49:00,
2013-07-11 10:50:00,55.5,49.8,30.05,WNW,294,0.0,2.0,81,0.00,,---,0.00,VWS V14.01,2013-07-11 18:50:00,
2013-07-11 10:53:00,55.8,50.1,30.05,WNW,294,0.0,0.0,81,0.00,,---,0.00,VWS V14.01,2013-07-11 18:53:00,
2013-07-11 10:55:00,56.0,50.9,30.05,WNW,294,0.0,0.0,83,0.00,,---,0.00,VWS V14.01,2013-07-11 18:55:00,
2013-07-11 10:56:00,56.1,50.7,30.05,WNW,294,0.0,0.0,82,0.00,,---,0.00,VWS V14.01,2013-07-11 18:56:00,
2013-07-11 10:58:00,56.3,49.9,30.05,WNW,294,0.0,2.0,79,0.00,,---,0.00,VWS V14.01,2013-07-11 18:58:00,
2013-07-11 11:00:00,56.4,50.0,30.05,WNW,294,2.0,2.0,79,0.00,,---,0.00,VWS V14.01,2013-07-11 19:00:00,
2013-07-11 11:01:00,56.4,49.6,30.05,WNW,294,0.0,3.0,78,0.00,,---,0.00,VWS V14.01,2013-07-11 19:01:00,
2013-07-11 11:02:00,56.5,49.7,30.05,WNW,294,0.0,0.0,78,0.00,,---,0.00,VWS V14.01,2013-07-11 19:02:00,
2013-07-11 11:04:00,56.6,50.5,30.05,WNW,294,0.0,1.0,80,0.00,,---,0.00,VWS V14.01,2013-07-11 19:04:00,
2013-07-11 11:06:00,56.8,50.0,30.05,WNW,294,0.0,1.0,78,0.00,,---,0.00,VWS V14.01,2013-07-11 19:06:00,
2013-07-11 11:07:00,56.8,49.3,30.05,WNW,294,0.0,2.0,76,0.00,,---,0.00,VWS V14.01,2013-07-11 19:07:00,
2013-07-11 11:10:00,57.0,50.6,30.05,WNW,294,0.0,2.0,79,0.00,,---,0.00,VWS V14.01,2013-07-11 19:10:00,
2013-07-11 11:11:00,57.1,50.7,30.05,WNW,294,0.0,2.0,79,0.00,,---,0.00,VWS V14.01,2013-07-11 19:11:00,
2013-07-11 11:12:00,57.1,50.3,30.05,WNW,294,0.0,0.0,78,0.00,,---,0.00,VWS V14.01,2013-07-11 19:12:00,
2013-07-11 11:15:00,57.3,49.8,30.05,WNW,294,0.0,0.0,76,0.00,,---,0.00,VWS V14.01,2013-07-11 19:15:00,
2013-07-11 11:16:00,57.3,49.8,30.05,WNW,294,0.0,0.0,76,0.00,,---,0.00,VWS V14.01,2013-07-11 19:16:00,
2013-07-11 11:18:00,57.5,50.4,30.05,WNW,294,0.0,0.0,77,0.00,,---,0.00,VWS V14.01,2013-07-11 19:18:00,
2013-07-11 11:20:00,57.7,50.9,30.05,WNW,294,0.0,0.0,78,0.00,,---,0.00,VWS V14.01,2013-07-11 19:20:00,
2013-07-11 11:21:00,57.8,50.7,30.05,WNW,294,0.0,0.0,77,0.00,,---,0.00,VWS V14.01,2013-07-11 19:21:00,
2013-07-11 11:22:00,57.9,50.7,30.05,WNW,294,0.0,0.0,77,0.00,,---,0.00,VWS V14.01,2013-07-11 19:22:00,
2013-07-11 11:23:00,58.0,50.5,30.05,WNW,294,0.0,0.0,76,0.00,,---,0.00,VWS V14.01,2013-07-11 19:23:00,
2013-07-11 11:26:00,58.2,50.3,30.05,WNW,294,0.0,0.0,75,0.00,,---,0.00,VWS V14.01,2013-07-11 19:26:00,
2013-07-11 11:27:00,58.3,50.8,30.05,WNW,294,0.0,1.0,76,0.00,,---,0.00,VWS V14.01,2013-07-11 19:27:00,
2013-07-11 11:28:00,58.4,50.2,30.05,WNW,294,0.0,1.0,74,0.00,,---,0.00,VWS V14.01,2013-07-11 19:28:00,
2013-07-11 11:31:00,58.6,50.0,30.05,WNW,294,0.0,1.0,73,0.00,,---,0.00,VWS V14.01,2013-07-11 19:31:00,
2013-07-11 11:33:00,58.7,50.5,30.05,WNW,294,0.0,0.0,74,0.00,,---,0.00,VWS V14.01,2013-07-11 19:33:00,
2013-07-11 11:34:00,58.9,51.0,30.05,WNW,294,0.0,0.0,75,0.00,,---,0.00,VWS V14.01,2013-07-11 19:34:00,
2013-07-11 11:37:00,59.1,50.8,30.05,WNW,294,0.0,0.0,74,0.00,,---,0.00,VWS V14.01,2013-07-11 19:37:00,
2013-07-11 11:38:00,59.2,50.9,30.05,WNW,294,0.0,1.0,74,0.00,,---,0.00,VWS V14.01,2013-07-11 19:38:00,
2013-07-11 11:39:00,59.3,50.7,30.05,WNW,294,0.0,1.0,73,0.00,,---,0.00,VWS V14.01,2013-07-11 19:39:00,
2013-07-11 11:42:00,59.4,49.6,30.05,WNW,294,0.0,0.0,70,0.00,,---,0.00,VWS V14.01,2013-07-11 19:42:00,
2013-07-11 11:43:00,59.5,49.7,30.05,WNW,294,0.0,0.0,70,0.00,,---,0.00,VWS V14.01,2013-07-11 19:43:00,
2013-07-11 11:44:00,59.5,49.7,30.05,WNW,294,0.0,0.0,70,0.00,,---,0.00,VWS V14.01,2013-07-11 19:44:00,
2013-07-11 11:45:00,59.6,50.6,30.05,WNW,294,0.0,0.0,72,0.00,,---,0.00,VWS V14.01,2013-07-11 19:45:00,
2013-07-11 11:47:00,59.7,49.9,30.05,WNW,294,0.0,2.0,70,0.00,,---,0.00,VWS V14.01,2013-07-11 19:47:00,
2013-07-11 11:48:00,59.8,49.6,30.05,WNW,294,0.0,2.0,69,0.00,,---,0.00,VWS V14.01,2013-07-11 19:48:00,
2013-07-11 11:50:00,59.8,50.0,30.05,WNW,294,0.0,2.0,70,0.00,,---,0.00,VWS V14.01,2013-07-11 19:50:00,
2013-07-11 11:51:00,59.9,50.1,30.05,WNW,294,0.0,2.0,70,0.00,,---,0.00,VWS V14.01,2013-07-11 19:51:00,
2013-07-11 11:52:00,60.0,49.8,30.05,WNW,294,0.0,0.0,69,0.00,,---,0.00,VWS V14.01,2013-07-11 19:52:00,
2013-07-11 11:54:00,60.0,49.4,30.05,WNW,294,0.0,0.0,68,0.00,,---,0.00,VWS V14.01,2013-07-11 19:54:00,
2013-07-11 11:56:00,60.2,50.0,30.05,WNW,294,0.0,0.0,69,0.00,,---,0.00,VWS V14.01,2013-07-11 19:56:00,
2013-07-11 11:58:00,60.2,49.6,30.05,WNW,294,0.0,0.0,68,0.00,,---,0.00,VWS V14.01,2013-07-11 19:58:00,
2013-07-11 11:59:00,60.3,49.3,30.05,WNW,296,2.0,3.0,67,0.00,,---,0.00,VWS V14.01,2013-07-11 19:59:00,
2013-07-11 12:01:00,60.2,48.8,30.05,NE,43,0.0,3.0,66,0.00,,---,0.00,VWS V14.01,2013-07-11 20:01:00,
2013-07-11 12:02:00,60.2,48.4,30.05,NE,43,0.0,1.0,65,0.00,,---,0.00,VWS V14.01,2013-07-11 20:02:00,
2013-07-11 12:03:00,60.2,47.6,30.05,NE,47,2.0,3.0,63,0.00,,---,0.00,VWS V14.01,2013-07-11 20:03:00,
2013-07-11 12:04:00,60.2,48.0,30.05,NE,47,0.0,3.0,64,0.00,,---,0.00,VWS V14.01,2013-07-11 20:04:00,
2013-07-11 12:06:00,60.1,47.0,30.05,ESE,103,1.0,5.0,62,0.00,,---,0.00,VWS V14.01,2013-07-11 20:06:00,
2013-07-11 12:08:00,60.1,47.9,30.05,ESE,118,4.0,6.0,64,0.00,,---,0.00,VWS V14.01,2013-07-11 20:08:00,
2013-07-11 12:09:00,60.1,48.3,30.05,SE,139,4.0,8.0,65,0.00,,---,0.00,VWS V14.01,2013-07-11 20:09:00,
2013-07-11 12:12:00,60.1,49.1,30.05,SE,140,0.0,2.0,67,0.00,,---,0.00,VWS V14.01,2013-07-11 20:12:00,
2013-07-11 12:13:00,60.1,49.5,30.05,SE,140,4.0,5.0,68,0.00,,---,0.00,VWS V14.01,2013-07-11 20:13:00,
2013-07-11 12:14:00,60.1,49.1,30.05,SE,140,1.0,5.0,67,0.00,,---,0.00,VWS V14.01,2013-07-11 20:14:00,
2013-07-11 12:15:00,60.2,49.2,30.05,SE,140,0.0,5.0,67,0.00,,---,0.00,VWS V14.01,2013-07-11 20:15:00,
2013-07-11 12:17:00,60.3,48.9,30.05,SSE,160,4.0,4.0,66,0.00,,---,0.00,VWS V14.01,2013-07-11 20:17:00,
2013-07-11 12:18:00,60.3,48.9,30.05,SSE,155,0.0,4.0,66,0.00,,---,0.00,VWS V14.01,2013-07-11 20:18:00,
2013-07-11 12:19:00,60.3,49.3,30.05,SSE,150,2.0,4.0,67,0.00,,---,0.00,VWS V14.01,2013-07-11 20:19:00,
2013-07-11 12:20:00,60.3,48.5,30.05,SSE,150,0.0,4.0,65,0.00,,---,0.00,VWS V14.01,2013-07-11 20:20:00,
2013-07-11 12:23:00,60.4,49.0,30.05,SSE,150,0.0,0.0,66,0.00,,---,0.00,VWS V14.01,2013-07-11 20:23:00,
2013-07-11 12:24:00,60.4,49.0,30.05,SSE,150,0.0,0.0,66,0.00,,---,0.00,VWS V14.01,2013-07-11 20:24:00,
2013-07-11 12:25:00,60.4,49.0,30.05,SSE,150,0.0,0.0,66,0.00,,---,0.00,VWS V14.01,2013-07-11 20:25:00,
2013-07-11 12:29:00,60.6,49.2,30.05,SE,146,0.0,5.0,66,0.00,,---,0.00,VWS V14.01,2013-07-11 20:29:00,
2013-07-11 12:30:00,60.6,48.8,30.05,SE,146,1.0,5.0,65,0.00,,---,0.00,VWS V14.01,2013-07-11 20:30:00,
2013-07-11 12:31:00,60.6,49.6,30.05,SE,146,0.0,5.0,67,0.00,,---,0.00,VWS V14.01,2013-07-11 20:31:00,
2013-07-11 12:34:00,60.7,49.3,30.05,SE,145,4.0,6.0,66,0.00,,---,0.00,VWS V14.01,2013-07-11 20:34:00,
2013-07-11 12:35:00,60.7,49.7,30.05,SSE,150,4.0,6.0,67,0.00,,---,0.00,VWS V14.01,2013-07-11 20:35:00,
2013-07-11 12:36:00,60.7,50.1,30.05,SSE,150,5.0,6.0,68,0.00,,---,0.00,VWS V14.01,2013-07-11 20:36:00,
2013-07-11 12:37:00,60.7,49.7,30.05,SSE,150,0.0,4.0,67,0.00,,---,0.00,VWS V14.01,2013-07-11 20:37:00,
2013-07-11 12:39:00,60.6,49.6,30.05,SSE,150,1.0,4.0,67,0.00,,---,0.00,VWS V14.01,2013-07-11 20:39:00,
2013-07-11 12:41:00,60.7,50.1,30.05,SSE,150,1.0,4.0,68,0.00,,---,0.00,VWS V14.01,2013-07-11 20:41:00,
2013-07-11 12:42:00,60.6,49.2,30.05,SSE,150,1.0,4.0,66,0.00,,---,0.00,VWS V14.01,2013-07-11 20:42:00,
2013-07-11 12:45:00,60.8,49.4,30.05,SSE,150,4.0,4.0,66,0.00,,---,0.00,VWS V14.01,2013-07-11 20:45:00,
2013-07-11 12:47:00,60.8,49.0,30.05,SSE,149,0.0,0.0,65,0.00,,---,0.00,VWS V14.01,2013-07-11 20:47:00,
2013-07-11 12:50:00,60.8,48.6,30.05,ESE,115,0.0,5.0,64,0.00,,---,0.00,VWS V14.01,2013-07-11 20:50:00,
2013-07-11 12:52:00,60.8,49.4,30.05,ESE,115,0.0,0.0,66,0.00,,---,0.00,VWS V14.01,2013-07-11 20:52:00,
2013-07-11 12:55:00,60.8,49.4,30.05,ESE,115,0.0,4.0,66,0.00,,---,0.00,VWS V14.01,2013-07-11 20:55:00,
2013-07-11 12:57:00,60.9,49.9,30.05,ESE,115,0.0,4.0,67,0.00,,---,0.00,VWS V14.01,2013-07-11 20:57:00,
2013-07-11 12:58:00,60.9,49.9,30.05,ESE,115,0.0,5.0,67,0.00,,---,0.00,VWS V14.01,2013-07-11 20:58:00,
2013-07-11 13:00:00,61.1,50.5,30.05,ESE,115,0.0,5.0,68,0.00,,---,0.00,VWS V14.01,2013-07-11 21:00:00,
2013-07-11 13:02:00,61.2,50.6,30.05,ESE,115,0.0,2.0,68,0.00,,---,0.00,VWS V14.01,2013-07-11 21:02:00,
2013-07-11 13:03:00,61.2,50.6,30.05,ESE,115,4.0,4.0,68,0.00,,---,0.00,VWS V14.01,2013-07-11 21:03:00,
2013-07-11 13:06:00,61.3,49.5,30.05,ESE,115,4.0,5.0,65,0.00,,---,0.00,VWS V14.01,2013-07-11 21:06:00,
2013-07-11 13:08:00,61.3,49.5,30.05,ESE,115,0.0,5.0,65,0.00,,---,0.00,VWS V14.01,2013-07-11 21:08:00,
2013-07-11 13:09:00,61.3,49.9,30.05,ESE,115,0.0,5.0,66,0.00,,---,0.00,VWS V14.01,2013-07-11 21:09:00,
2013-07-11 13:11:00,61.4,50.0,30.05,ESE,115,2.0,2.0,66,0.00,,---,0.00,VWS V14.01,2013-07-11 21:11:00,
2013-07-11 13:13:00,61.5,50.0,30.05,ESE,115,2.0,5.0,66,0.00,,---,0.00,VWS V14.01,2013-07-11 21:13:00,
2013-07-11 13:15:00,61.6,49.7,30.05,ESE,115,0.0,5.0,65,0.00,,---,0.00,VWS V14.01,2013-07-11 21:15:00,
2013-07-11 13:16:00,61.6,49.7,30.05,ESE,115,0.0,1.0,65,0.00,,---,0.00,VWS V14.01,2013-07-11 21:16:00,
2013-07-11 13:18:00,61.7,50.6,30.05,ESE,117,0.0,5.0,67,0.00,,---,0.00,VWS V14.01,2013-07-11 21:18:00,
2013-07-11 13:19:00,61.7,50.2,30.04,ESE,117,0.0,5.0,66,0.00,,---,0.00,VWS V14.01,2013-07-11 21:19:00,
2013-07-11 13:20:00,61.8,50.7,30.04,ESE,119,0.0,5.0,67,0.00,,---,0.00,VWS V14.01,2013-07-11 21:20:00,
2013-07-11 13:22:00,61.8,50.7,30.05,SE,136,0.0,5.0,67,0.00,,---,0.00,VWS V14.01,2013-07-11 21:22:00,
2013-07-11 13:23:00,61.8,50.3,30.05,SE,129,2.0,6.0,66,0.00,,---,0.00,VWS V14.01,2013-07-11 21:23:00,
2013-07-11 13:24:00,61.8,50.3,30.05,SE,129,0.0,6.0,66,0.00,,---,0.00,VWS V14.01,2013-07-11 21:24:00,
2013-07-11 13:26:00,62.0,50.9,30.05,SSE,149,2.0,7.0,67,0.00,,---,0.00,VWS V14.01,2013-07-11 21:26:00,
2013-07-11 13:27:00,62.0,50.9,30.05,SE,132,4.0,7.0,67,0.00,,---,0.00,VWS V14.01,2013-07-11 21:27:00,
2013-07-11 13:29:00,62.1,51.0,30.04,SE,131,5.0,7.0,67,0.00,,---,0.00,VWS V14.01,2013-07-11 21:29:00,
2013-07-11 13:31:00,62.1,51.0,30.05,SE,139,1.0,7.0,67,0.00,,---,0.00,VWS V14.01,2013-07-11 21:31:00,
2013-07-11 13:32:00,62.2,51.1,30.05,SE,134,1.0,5.0,67,0.00,,---,0.00,VWS V14.01,2013-07-11 21:32:00,
2013-07-11 13:34:00,62.2,50.7,30.05,SE,131,5.0,7.0,66,0.00,,---,0.00,VWS V14.01,2013-07-11 21:34:00,
2013-07-11 13:36:00,62.2,50.7,30.04,SE,128,2.0,7.0,66,0.00,,---,0.00,VWS V14.01,2013-07-11 21:36:00,
2013-07-11 13:37:00,62.1,50.6,30.05,SE,128,0.0,5.0,66,0.00,,---,0.00,VWS V14.01,2013-07-11 21:37:00,
2013-07-11 13:39:00,62.1,51.0,30.05,ESE,112,0.0,7.0,67,0.00,,---,0.00,VWS V14.01,2013-07-11 21:39:00,
2013-07-11 13:41:00,62.1,51.4,30.05,SE,125,1.0,7.0,68,0.00,,---,0.00,VWS V14.01,2013-07-11 21:41:00,
2013-07-11 13:42:00,62.1,51.8,30.05,SE,134,5.0,5.0,69,0.00,,---,0.00,VWS V14.01,2013-07-11 21:42:00,
2013-07-11 13:44:00,62.2,51.1,30.05,SE,143,6.0,6.0,67,0.00,,---,0.00,VWS V14.01,2013-07-11 21:44:00,
2013-07-11 13:46:00,62.1,50.2,30.04,SE,141,2.0,2.0,65,0.00,,---,0.00,VWS V14.01,2013-07-11 21:46:00,
2013-07-11 13:48:00,62.1,51.0,30.05,SE,137,4.0,4.0,67,0.00,,---,0.00,VWS V14.01,2013-07-11 21:48:00,
2013-07-11 13:50:00,62.2,51.5,30.05,SSE,155,5.0,7.0,68,0.00,,---,0.00,VWS V14.01,2013-07-11 21:50:00,
2013-07-11 13:51:00,62.3,51.6,30.05,SE,138,2.0,6.0,68,0.00,,---,0.00,VWS V14.01,2013-07-11 21:51:00,
2013-07-11 13:53:00,62.4,50.9,30.04,SSE,155,0.0,7.0,66,0.00,,---,0.00,VWS V14.01,2013-07-11 21:53:00,
2013-07-11 13:55:00,62.5,51.0,30.04,SE,142,6.0,9.0,66,0.00,,---,0.00,VWS V14.01,2013-07-11 21:55:00,
2013-07-11 13:57:00,62.5,50.6,30.04,SE,139,0.0,0.0,65,0.00,,---,0.00,VWS V14.01,2013-07-11 21:57:00,
2013-07-11 13:58:00,62.5,51.0,30.04,SE,131,2.0,6.0,66,0.00,,---,0.00,VWS V14.01,2013-07-11 21:58:00,
2013-07-11 14:00:00,62.6,50.7,30.04,SE,134,1.0,8.0,65,0.00,,---,0.00,VWS V14.01,2013-07-11 22:00:00,
2013-07-11 14:01:00,62.6,51.1,30.04,SE,134,0.0,0.0,66,0.00,,---,0.00,VWS V14.01,2013-07-11 22:01:00,
2013-07-11 14:02:00,62.7,51.2,30.04,SE,134,0.0,0.0,66,0.00,,---,0.00,VWS V14.01,2013-07-11 22:02:00,
2013-07-11 14:03:00,62.8,50.9,30.04,SE,127,6.0,6.0,65,0.00,,---,0.00,VWS V14.01,2013-07-11 22:03:00,
2013-07-11 14:05:00,62.9,51.0,30.04,SE,136,0.0,7.0,65,0.00,,---,0.00,VWS V14.01,2013-07-11 22:05:00,
2013-07-11 14:07:00,63.1,50.7,30.04,ESE,122,2.0,5.0,64,0.00,,---,0.00,VWS V14.01,2013-07-11 22:07:00,
2013-07-11 14:09:00,63.1,50.3,30.04,ESE,122,0.0,5.0,63,0.00,,---,0.00,VWS V14.01,2013-07-11 22:09:00,
2013-07-11 14:10:00,63.2,50.4,30.04,ESE,117,2.0,5.0,63,0.00,,---,0.00,VWS V14.01,2013-07-11 22:10:00,
2013-07-11 14:13:00,63.3,50.1,30.04,ESE,117,0.0,4.0,62,0.00,,---,0.00,VWS V14.01,2013-07-11 22:13:00,
2013-07-11 14:14:00,63.4,50.2,30.04,ESE,123,6.0,6.0,62,0.00,,---,0.00,VWS V14.01,2013-07-11 22:14:00,
2013-07-11 14:16:00,63.5,50.3,30.04,SE,136,5.0,7.0,62,0.00,,---,0.00,VWS V14.01,2013-07-11 22:16:00,
2013-07-11 14:19:00,63.7,49.6,30.04,SE,144,6.0,6.0,60,0.00,,---,0.00,VWS V14.01,2013-07-11 22:19:00,
2013-07-11 14:21:00,63.8,46.8,30.04,East,94,4.0,7.0,54,0.00,,---,0.00,VWS V14.01,2013-07-11 22:21:00,
2013-07-11 14:25:00,63.7,44.7,30.04,East,98,4.0,4.0,50,0.00,,---,0.00,VWS V14.01,2013-07-11 22:25:00,
2013-07-11 14:26:00,63.6,44.6,30.04,East,98,0.0,4.0,50,0.00,,---,0.00,VWS V14.01,2013-07-11 22:26:00,
2013-07-11 14:30:00,63.8,45.3,30.04,ESE,105,1.0,2.0,51,0.00,,---,0.00,VWS V14.01,2013-07-11 22:30:00,
2013-07-11 14:31:00,63.8,45.3,30.04,SSE,149,1.0,5.0,51,0.00,,---,0.00,VWS V14.01,2013-07-11 22:31:00,
2013-07-11 14:36:00,64.2,44.7,30.03,East,98,2.0,5.0,49,0.00,,---,0.00,VWS V14.01,2013-07-11 22:36:00,
2013-07-11 14:41:00,64.3,42.5,30.03,ESE,108,0.0,5.0,45,0.00,,---,0.00,VWS V14.01,2013-07-11 22:41:00,
2013-07-11 14:43:00,64.4,44.3,30.04,ESE,110,4.0,5.0,48,0.00,,---,0.00,VWS V14.01,2013-07-11 22:43:00,
2013-07-11 14:46:00,64.4,43.8,30.03,South,169,0.0,6.0,47,0.00,,---,0.00,VWS V14.01,2013-07-11 22:46:00,
2013-07-11 14:48:00,64.5,44.9,30.03,SSE,152,1.0,6.0,49,0.00,,---,0.00,VWS V14.01,2013-07-11 22:48:00,
2013-07-11 14:51:00,64.6,43.4,30.03,ENE,74,1.0,6.0,46,0.00,,---,0.00,VWS V14.01,2013-07-11 22:51:00,
2013-07-11 14:52:00,64.6,43.9,30.03,ENE,74,0.0,1.0,47,0.00,,---,0.00,VWS V14.01,2013-07-11 22:52:00,
2013-07-11 14:53:00,64.6,44.5,30.03,SE,135,5.0,5.0,48,0.00,,---,0.00,VWS V14.01,2013-07-11 22:53:00,
2013-07-11 14:56:00,64.5,44.4,30.03,ESE,121,2.0,5.0,48,0.00,,---,0.00,VWS V14.01,2013-07-11 22:56:00,
2013-07-11 14:57:00,64.5,43.8,30.03,ESE,116,2.0,7.0,47,0.00,,---,0.00,VWS V14.01,2013-07-11 22:57:00,
2013-07-11 14:59:00,64.4,43.8,30.03,ESE,121,2.0,7.0,47,0.00,,---,0.00,VWS V14.01,2013-07-11 22:59:00,
2013-07-11 15:01:00,64.3,44.2,30.03,SE,139,2.0,2.0,48,0.00,,---,0.00,VWS V14.01,2013-07-11 23:01:00,
2013-07-11 15:02:00,64.3,44.2,30.03,SE,146,4.0,4.0,48,0.00,,---,0.00,VWS V14.01,2013-07-11 23:02:00,
2013-07-11 15:04:00,64.3,44.2,30.03,ESE,123,1.0,6.0,48,0.00,,---,0.00,VWS V14.01,2013-07-11 23:04:00,
2013-07-11 15:06:00,64.4,44.3,30.03,SE,140,0.0,0.0,48,0.00,,---,0.00,VWS V14.01,2013-07-11 23:06:00,
2013-07-11 15:07:00,64.4,44.8,30.03,SE,140,0.0,0.0,49,0.00,,---,0.00,VWS V14.01,2013-07-11 23:07:00,
2013-07-11 15:08:00,64.5,44.9,30.03,SE,145,1.0,6.0,49,0.00,,---,0.00,VWS V14.01,2013-07-11 23:08:00,
2013-07-11 15:09:00,64.5,44.9,30.03,SE,142,2.0,6.0,49,0.00,,---,0.00,VWS V14.01,2013-07-11 23:09:00,
2013-07-11 15:12:00,64.6,42.8,30.03,SE,125,0.0,6.0,45,0.00,,---,0.00,VWS V14.01,2013-07-11 23:12:00,
2013-07-11 15:13:00,64.6,43.9,30.03,ESE,105,0.0,6.0,47,0.00,,---,0.00,VWS V14.01,2013-07-11 23:13:00,
2013-07-11 15:14:00,64.6,43.4,30.03,SE,133,0.0,6.0,46,0.00,,---,0.00,VWS V14.01,2013-07-11 23:14:00,
2013-07-11 15:17:00,64.6,42.8,30.03,SE,130,0.0,1.0,45,0.00,,---,0.00,VWS V14.01,2013-07-11 23:17:00,
2013-07-11 15:19:00,64.7,44.6,30.03,SE,128,2.0,4.0,48,0.00,,---,0.00,VWS V14.01,2013-07-11 23:19:00,
2013-07-11 15:20:00,64.7,43.5,30.03,SE,128,0.0,4.0,46,0.00,,---,0.00,VWS V14.01,2013-07-11 23:20:00,
2013-07-11 15:21:00,64.7,44.6,30.03,SE,128,0.0,4.0,48,0.00,,---,0.00,VWS V14.01,2013-07-11 23:21:00,
2013-07-11 15:22:00,64.7,44.0,30.03,SE,128,0.0,2.0,47,0.00,,---,0.00,VWS V14.01,2013-07-11 23:22:00,
2013-07-11 15:24:00,64.7,44.0,30.03,ESE,115,4.0,6.0,47,0.00,,---,0.00,VWS V14.01,2013-07-11 23:24:00,
2013-07-11 15:26:00,64.7,43.5,30.03,SE,136,4.0,6.0,46,0.00,,---,0.00,VWS V14.01,2013-07-11 23:26:00,
2013-07-11 15:27:00,64.7,44.0,30.03,SE,143,4.0,5.0,47,0.00,,---,0.00,VWS V14.01,2013-07-11 23:27:00,
2013-07-11 15:30:00,64.8,44.7,30.03,ESE,114,4.0,8.0,48,0.00,,---,0.00,VWS V14.01,2013-07-11 23:30:00,
2013-07-11 15:31:00,64.8,44.1,30.03,ESE,114,0.0,8.0,47,0.00,,---,0.00,VWS V14.01,2013-07-11 23:31:00,
2013-07-11 15:33:00,64.9,45.3,30.03,SE,134,0.0,6.0,49,0.00,,---,0.00,VWS V14.01,2013-07-11 23:33:00,
2013-07-11 15:35:00,64.9,44.2,30.03,SE,134,2.0,6.0,47,0.00,,---,0.00,VWS V14.01,2013-07-11 23:35:00,
2013-07-11 15:36:00,65.0,43.7,30.03,SE,134,1.0,6.0,46,0.00,,---,0.00,VWS V14.01,2013-07-11 23:36:00,
2013-07-11 15:38:00,65.0,45.4,30.03,SE,126,0.0,4.0,49,0.00,,---,0.00,VWS V14.01,2013-07-11 23:38:00,
2013-07-11 15:41:00,65.0,45.9,30.03,SSE,168,6.0,9.0,50,0.00,,---,0.00,VWS V14.01,2013-07-11 23:41:00,
2013-07-11 15:43:00,65.1,46.0,30.03,SE,131,0.0,6.0,50,0.00,,---,0.00,VWS V14.01,2013-07-11 23:43:00,
2013-07-11 15:46:00,65.2,43.9,30.03,SE,133,2.0,6.0,46,0.00,,---,0.00,VWS V14.01,2013-07-11 23:46:00,
2013-07-11 15:47:00,65.2,44.5,30.03,ESE,117,2.0,2.0,47,0.00,,---,0.00,VWS V14.01,2013-07-11 23:47:00,
2013-07-11 15:49:00,65.2,44.5,30.03,ESE,107,1.0,2.0,47,0.00,,---,0.00,VWS V14.01,2013-07-11 23:49:00,
2013-07-11 15:51:00,65.1,44.4,30.03,ESE,107,0.0,2.0,47,0.00,,---,0.00,VWS V14.01,2013-07-11 23:51:00,
2013-07-11 15:52:00,65.0,44.3,30.03,ESE,107,0.0,2.0,47,0.00,,---,0.00,VWS V14.01,2013-07-11 23:52:00,
2013-07-11 15:54:00,65.0,43.7,30.03,ESE,107,0.0,2.0,46,0.00,,---,0.00,VWS V14.01,2013-07-11 23:54:00,
2013-07-11 15:56:00,65.0,44.8,30.03,ESE,107,0.0,2.0,48,0.00,,---,0.00,VWS V14.01,2013-07-11 23:56:00,
2013-07-11 15:58:00,64.9,44.8,30.03,ESE,107,0.0,2.0,48,0.00,,---,0.00,VWS V14.01,2013-07-11 23:58:00,
2013-07-11 15:59:00,64.9,45.3,30.03,ESE,107,0.0,2.0,49,0.00,,---,0.00,VWS V14.01,2013-07-11 23:59:00,
2013-07-11 16:01:00,64.9,46.4,30.03,ESE,116,0.0,1.0,51,0.00,,---,0.00,VWS V14.01,2013-07-12 00:01:00,
2013-07-11 16:02:00,64.9,46.4,30.03,ESE,102,1.0,7.0,51,0.00,,---,0.00,VWS V14.01,2013-07-12 00:02:00,
2013-07-11 16:04:00,64.9,45.8,30.03,SSE,150,4.0,7.0,50,0.00,,---,0.00,VWS V14.01,2013-07-12 00:04:00,
2013-07-11 16:07:00,64.9,45.8,30.03,SSE,157,4.0,4.0,50,0.00,,---,0.00,VWS V14.01,2013-07-12 00:07:00,
2013-07-11 16:09:00,64.8,45.7,30.03,SSE,155,0.0,5.0,50,0.00,,---,0.00,VWS V14.01,2013-07-12 00:09:00,
2013-07-11 16:10:00,64.8,45.7,30.03,SSE,155,0.0,5.0,50,0.00,,---,0.00,VWS V14.01,2013-07-12 00:10:00,
2013-07-11 16:13:00,64.9,46.4,30.03,SSE,159,1.0,5.0,51,0.00,,---,0.00,VWS V14.01,2013-07-12 00:13:00,
2013-07-11 16:15:00,65.0,47.0,30.03,SSE,159,0.0,5.0,52,0.00,,---,0.00,VWS V14.01,2013-07-12 00:15:00,
2013-07-11 16:18:00,65.2,47.2,30.03,SSE,159,4.0,4.0,52,0.00,,---,0.00,VWS V14.01,2013-07-12 00:18:00,
2013-07-11 16:20:00,65.3,47.2,30.03,SSE,159,0.0,4.0,52,0.00,,---,0.00,VWS V14.01,2013-07-12 00:20:00,
2013-07-11 16:23:00,65.3,45.7,30.03,SE,146,2.0,6.0,49,0.00,,---,0.00,VWS V14.01,2013-07-12 00:23:00,
2013-07-11 16:25:00,65.3,46.7,30.03,SE,135,4.0,6.0,51,0.00,,---,0.00,VWS V14.01,2013-07-12 00:25:00,
2013-07-11 16:28:00,65.2,46.1,30.03,SE,141,1.0,6.0,50,0.00,,---,0.00,VWS V14.01,2013-07-12 00:28:00,
2013-07-11 16:29:00,65.2,46.1,30.03,SE,141,1.0,6.0,50,0.00,,---,0.00,VWS V14.01,2013-07-12 00:29:00,
2013-07-11 16:31:00,65.2,47.7,30.02,SE,141,0.0,6.0,53,0.00,,---,0.00,VWS V14.01,2013-07-12 00:31:00,
2013-07-11 16:33:00,65.2,50.5,30.03,SE,141,0.0,2.0,59,0.00,,---,0.00,VWS V14.01,2013-07-12 00:33:00,
2013-07-11 16:34:00,65.2,51.4,30.02,SE,141,0.0,2.0,61,0.00,,---,0.00,VWS V14.01,2013-07-12 00:34:00,
2013-07-11 16:36:00,65.2,49.6,30.02,SE,132,1.0,4.0,57,0.00,,---,0.00,VWS V14.01,2013-07-12 00:36:00,
2013-07-11 16:38:00,65.2,50.1,30.02,SSE,148,1.0,5.0,58,0.00,,---,0.00,VWS V14.01,2013-07-12 00:38:00,
2013-07-11 16:40:00,65.1,50.0,30.03,SSE,148,0.0,5.0,58,0.00,,---,0.00,VWS V14.01,2013-07-12 00:40:00,
2013-07-11 16:41:00,65.1,50.4,30.03,SSE,149,5.0,5.0,59,0.00,,---,0.00,VWS V14.01,2013-07-12 00:41:00,
2013-07-11 16:42:00,65.0,48.9,30.03,SSE,150,1.0,5.0,56,0.00,,---,0.00,VWS V14.01,2013-07-12 00:42:00,
2013-07-11 16:43:00,65.0,50.3,30.03,SSE,153,1.0,5.0,59,0.00,,---,0.00,VWS V14.01,2013-07-12 00:43:00,
2013-07-11 16:45:00,64.9,49.3,30.03,SE,144,0.0,5.0,57,0.00,,---,0.00,VWS V14.01,2013-07-12 00:45:00,
2013-07-11 16:46:00,64.9,49.8,30.02,South,171,1.0,4.0,58,0.00,,---,0.00,VWS V14.01,2013-07-12 00:46:00,
2013-07-11 16:47:00,64.8,50.6,30.03,South,169,0.0,4.0,60,0.00,,---,0.00,VWS V14.01,2013-07-12 00:47:00,
2013-07-11 16:49:00,64.8,50.6,30.03,SE,130,0.0,4.0,60,0.00,,---,0.00,VWS V14.01,2013-07-12 00:49:00,
2013-07-11 16:50:00,64.8,50.6,30.03,SE,139,0.0,7.0,60,0.00,,---,0.00,VWS V14.01,2013-07-12 00:50:00,
2013-07-11 16:52:00,64.7,51.0,30.03,South,180,0.0,5.0,61,0.00,,---,0.00,VWS V14.01,2013-07-12 00:52:00,
2013-07-11 16:53:00,64.7,51.0,30.03,South,169,1.0,7.0,61,0.00,,---,0.00,VWS V14.01,2013-07-12 00:53:00,
2013-07-11 16:54:00,64.6,50.9,30.03,SSE,150,0.0,7.0,61,0.00,,---,0.00,VWS V14.01,2013-07-12 00:54:00,
2013-07-11 16:55:00,64.6,50.9,30.03,SSE,151,0.0,7.0,61,0.00,,---,0.00,VWS V14.01,2013-07-12 00:55:00,
2013-07-11 16:57:00,64.5,50.3,30.03,SSE,151,0.0,2.0,60,0.00,,---,0.00,VWS V14.01,2013-07-12 00:57:00,
2013-07-11 16:58:00,64.5,50.8,30.03,SSE,151,0.0,2.0,61,0.00,,---,0.00,VWS V14.01,2013-07-12 00:58:00,
2013-07-11 17:00:00,64.5,50.3,30.03,SE,144,2.0,4.0,60,0.00,,---,0.00,VWS V14.01,2013-07-12 01:00:00,
2013-07-11 17:04:00,64.5,50.3,30.03,SE,138,2.0,4.0,60,0.00,,---,0.00,VWS V14.01,2013-07-12 01:04:00,
2013-07-11 17:05:00,64.5,49.4,30.03,SE,138,2.0,4.0,58,0.00,,---,0.00,VWS V14.01,2013-07-12 01:05:00,
2013-07-11 17:06:00,64.5,49.4,30.03,SE,138,0.0,4.0,58,0.00,,---,0.00,VWS V14.01,2013-07-12 01:06:00,
2013-07-11 17:09:00,64.5,49.4,30.02,SE,127,1.0,4.0,58,0.00,,---,0.00,VWS V14.01,2013-07-12 01:09:00,
2013-07-11 17:10:00,64.5,49.9,30.02,SE,127,1.0,4.0,59,0.00,,---,0.00,VWS V14.01,2013-07-12 01:10:00,
2013-07-11 17:11:00,64.5,48.0,30.02,SE,127,0.0,0.0,55,0.00,,---,0.00,VWS V14.01,2013-07-12 01:11:00,
2013-07-11 17:15:00,64.6,49.5,30.02,SE,128,0.0,4.0,58,0.00,,---,0.00,VWS V14.01,2013-07-12 01:15:00,
2013-07-11 17:16:00,64.6,49.5,30.02,SE,144,2.0,4.0,58,0.00,,---,0.00,VWS V14.01,2013-07-12 01:16:00,
2013-07-11 17:20:00,64.7,49.1,30.02,SE,144,0.0,2.0,57,0.00,,---,0.00,VWS V14.01,2013-07-12 01:20:00,
2013-07-11 17:21:00,64.7,49.1,30.02,ESE,111,0.0,4.0,57,0.00,,---,0.00,VWS V14.01,2013-07-12 01:21:00,
2013-07-11 17:22:00,64.7,48.7,30.02,ESE,112,0.0,1.0,56,0.00,,---,0.00,VWS V14.01,2013-07-12 01:22:00,
2013-07-11 17:26:00,64.5,48.0,30.02,ESE,112,0.0,2.0,55,0.00,,---,0.00,VWS V14.01,2013-07-12 01:26:00,
2013-07-11 17:27:00,64.5,48.5,30.02,ESE,112,0.0,0.0,56,0.00,,---,0.00,VWS V14.01,2013-07-12 01:27:00,
2013-07-11 17:31:00,64.4,48.8,30.02,SE,142,0.0,6.0,57,0.00,,---,0.00,VWS V14.01,2013-07-12 01:31:00,
2013-07-11 17:32:00,64.4,48.4,30.02,SE,142,0.0,2.0,56,0.00,,---,0.00,VWS V14.01,2013-07-12 01:32:00,
2013-07-11 17:37:00,64.4,50.2,30.02,SE,142,1.0,2.0,60,0.00,,---,0.00,VWS V14.01,2013-07-12 01:37:00,
2013-07-11 17:38:00,64.5,50.3,30.02,SE,142,0.0,5.0,60,0.00,,---,0.00,VWS V14.01,2013-07-12 01:38:00,
2013-07-11 17:42:00,64.4,48.4,30.02,ESE,121,0.0,2.0,56,0.00,,---,0.00,VWS V14.01,2013-07-12 01:42:00,
2013-07-11 17:43:00,64.4,48.4,30.02,ESE,121,0.0,2.0,56,0.00,,---,0.00,VWS V14.01,2013-07-12 01:43:00,
2013-07-11 17:48:00,64.4,47.9,30.02,SE,140,0.0,6.0,55,0.00,,---,0.00,VWS V14.01,2013-07-12 01:48:00,
2013-07-11 17:53:00,64.4,47.9,30.02,SSE,158,0.0,2.0,55,0.00,,---,0.00,VWS V14.01,2013-07-12 01:53:00,
2013-07-11 17:54:00,64.4,48.4,30.02,SSE,158,0.0,2.0,56,0.00,,---,0.00,VWS V14.01,2013-07-12 01:54:00,
2013-07-11 17:58:00,64.4,47.9,30.02,SSE,158,0.0,2.0,55,0.00,,---,0.00,VWS V14.01,2013-07-12 01:58:00,
2013-07-11 17:59:00,64.4,48.4,30.02,SE,131,0.0,4.0,56,0.00,,---,0.00,VWS V14.01,2013-07-12 01:59:00,
2013-07-11 18:03:00,64.3,48.3,30.02,SE,140,0.0,5.0,56,0.00,,---,0.00,VWS V14.01,2013-07-12 02:03:00,
2013-07-11 18:05:00,64.3,49.2,30.02,SE,140,0.0,5.0,58,0.00,,---,0.00,VWS V14.01,2013-07-12 02:05:00,
2013-07-11 18:08:00,64.3,48.3,30.02,SE,140,0.0,4.0,56,0.00,,---,0.00,VWS V14.01,2013-07-12 02:08:00,
2013-07-11 18:10:00,64.2,47.7,30.02,SE,140,0.0,4.0,55,0.00,,---,0.00,VWS V14.01,2013-07-12 02:10:00,
2013-07-11 18:13:00,64.2,47.7,30.02,SE,132,0.0,6.0,55,0.00,,---,0.00,VWS V14.01,2013-07-12 02:13:00,
2013-07-11 18:14:00,64.2,47.7,30.02,SE,132,0.0,6.0,55,0.00,,---,0.00,VWS V14.01,2013-07-12 02:14:00,
2013-07-11 18:15:00,64.1,50.4,30.02,SE,145,1.0,6.0,61,0.00,,---,0.00,VWS V14.01,2013-07-12 02:15:00,
2013-07-11 18:16:00,64.1,50.4,30.02,SE,145,0.0,6.0,61,0.00,,---,0.00,VWS V14.01,2013-07-12 02:16:00,
2013-07-11 18:19:00,64.0,51.2,30.02,SSE,167,1.0,4.0,63,0.00,,---,0.00,VWS V14.01,2013-07-12 02:19:00,
2013-07-11 18:21:00,64.0,51.6,30.02,South,169,0.0,4.0,64,0.00,,---,0.00,VWS V14.01,2013-07-12 02:21:00,
2013-07-11 18:24:00,63.9,51.1,30.02,SSE,147,1.0,5.0,63,0.00,,---,0.00,VWS V14.01,2013-07-12 02:24:00,
2013-07-11 18:26:00,63.8,51.8,30.02,SSE,151,2.0,5.0,65,0.00,,---,0.00,VWS V14.01,2013-07-12 02:26:00,
2013-07-11 18:29:00,63.7,52.5,30.02,SSE,163,0.0,2.0,67,0.00,,---,0.00,VWS V14.01,2013-07-12 02:29:00,
2013-07-11 18:30:00,63.7,52.5,30.02,SSE,163,0.0,2.0,67,0.00,,---,0.00,VWS V14.01,2013-07-12 02:30:00,
2013-07-11 18:31:00,63.7,53.0,30.02,SSE,163,0.0,2.0,68,0.00,,---,0.00,VWS V14.01,2013-07-12 02:31:00,
2013-07-11 18:34:00,63.6,52.0,30.02,SSE,163,0.0,2.0,66,0.00,,---,0.00,VWS V14.01,2013-07-12 02:34:00,
2013-07-11 18:35:00,63.6,52.0,30.02,SSE,163,0.0,2.0,66,0.00,,---,0.00,VWS V14.01,2013-07-12 02:35:00,
2013-07-11 18:36:00,63.5,52.0,30.02,SSE,163,0.0,0.0,66,0.00,,---,0.00,VWS V14.01,2013-07-12 02:36:00,
2013-07-11 18:37:00,63.5,52.0,30.02,SSE,163,0.0,0.0,66,0.00,,---,0.00,VWS V14.01,2013-07-12 02:37:00,
2013-07-11 18:39:00,63.6,52.0,30.02,SSE,163,0.0,0.0,66,0.00,,---,0.00,VWS V14.01,2013-07-12 02:39:00,
2013-07-11 18:40:00,63.6,52.5,30.02,SSE,163,0.0,0.0,67,0.00,,---,0.00,VWS V14.01,2013-07-12 02:40:00,
2013-07-11 18:42:00,63.6,50.8,30.02,SSE,163,0.0,2.0,63,0.00,,---,0.00,VWS V14.01,2013-07-12 02:42:00,
2013-07-11 18:45:00,63.6,51.6,30.02,SSE,163,0.0,2.0,65,0.00,,---,0.00,VWS V14.01,2013-07-12 02:45:00,
2013-07-11 18:46:00,63.6,51.6,30.02,SSE,163,0.0,2.0,65,0.00,,---,0.00,VWS V14.01,2013-07-12 02:46:00,
2013-07-11 18:47:00,63.7,51.7,30.02,SSE,163,0.0,5.0,65,0.00,,---,0.00,VWS V14.01,2013-07-12 02:47:00,
2013-07-11 18:48:00,63.7,51.7,30.02,SSE,163,0.0,5.0,65,0.00,,---,0.00,VWS V14.01,2013-07-12 02:48:00,
2013-07-11 18:50:00,63.6,51.6,30.02,SSE,163,0.0,5.0,65,0.00,,---,0.00,VWS V14.01,2013-07-12 02:50:00,
2013-07-11 18:51:00,63.6,51.2,30.02,SSE,163,0.0,5.0,64,0.00,,---,0.00,VWS V14.01,2013-07-12 02:51:00,
2013-07-11 18:52:00,63.6,50.8,30.02,SSE,163,0.0,1.0,63,0.00,,---,0.00,VWS V14.01,2013-07-12 02:52:00,
2013-07-11 18:54:00,63.6,52.5,30.02,SSE,163,0.0,1.0,67,0.00,,---,0.00,VWS V14.01,2013-07-12 02:54:00,
2013-07-11 18:55:00,63.5,50.3,30.02,SSE,163,0.0,1.0,62,0.00,,---,0.00,VWS V14.01,2013-07-12 02:55:00,
2013-07-11 18:56:00,63.5,49.8,30.02,SSE,163,0.0,0.0,61,0.00,,---,0.00,VWS V14.01,2013-07-12 02:56:00,
2013-07-11 18:57:00,63.5,50.3,30.02,SSE,163,0.0,0.0,62,0.00,,---,0.00,VWS V14.01,2013-07-12 02:57:00,
2013-07-11 19:00:00,63.5,49.8,30.02,SSE,163,0.0,0.0,61,0.00,,---,0.00,VWS V14.01,2013-07-12 03:00:00,
2013-07-11 19:01:00,63.5,49.8,30.02,SSE,163,0.0,0.0,61,0.00,,---,0.00,VWS V14.01,2013-07-12 03:01:00,
2013-07-11 19:03:00,63.5,50.7,30.02,SSE,163,0.0,0.0,63,0.00,,---,0.00,VWS V14.01,2013-07-12 03:03:00,
2013-07-11 19:05:00,63.5,52.0,30.02,SSE,163,0.0,0.0,66,0.00,,---,0.00,VWS V14.01,2013-07-12 03:05:00,
2013-07-11 19:06:00,63.5,51.5,30.02,SSE,163,0.0,0.0,65,0.00,,---,0.00,VWS V14.01,2013-07-12 03:06:00,
2013-07-11 19:07:00,63.5,51.5,30.02,SSE,163,0.0,0.0,65,0.00,,---,0.00,VWS V14.01,2013-07-12 03:07:00,
2013-07-11 19:09:00,63.5,52.0,30.02,SSE,163,0.0,0.0,66,0.00,,---,0.00,VWS V14.01,2013-07-12 03:09:00,
2013-07-11 19:10:00,63.4,52.3,30.02,SE,135,0.0,5.0,67,0.00,,---,0.00,VWS V14.01,2013-07-12 03:10:00,
2013-07-11 19:11:00,63.4,52.3,30.02,SE,135,0.0,1.0,67,0.00,,---,0.00,VWS V14.01,2013-07-12 03:11:00,
2013-07-11 19:12:00,63.3,52.2,30.02,SE,135,0.0,1.0,67,0.00,,---,0.00,VWS V14.01,2013-07-12 03:12:00,
2013-07-11 19:14:00,63.2,52.5,30.02,SE,135,0.0,1.0,68,0.00,,---,0.00,VWS V14.01,2013-07-12 03:14:00,
2013-07-11 19:15:00,63.2,52.9,30.01,SE,135,0.0,1.0,69,0.00,,---,0.00,VWS V14.01,2013-07-12 03:15:00,
2013-07-11 19:16:00,63.2,53.3,30.02,SE,135,0.0,0.0,70,0.00,,---,0.00,VWS V14.01,2013-07-12 03:16:00,
2013-07-11 19:17:00,63.1,52.8,30.01,SE,135,0.0,0.0,69,0.00,,---,0.00,VWS V14.01,2013-07-12 03:17:00,
2013-07-11 19:19:00,63.1,52.8,30.01,SE,135,0.0,1.0,69,0.00,,---,0.00,VWS V14.01,2013-07-12 03:19:00,
2013-07-11 19:20:00,63.1,52.8,30.01,SE,135,0.0,1.0,69,0.00,,---,0.00,VWS V14.01,2013-07-12 03:20:00,
2013-07-11 19:22:00,63.0,52.7,30.01,SE,135,0.0,0.0,69,0.00,,---,0.00,VWS V14.01,2013-07-12 03:22:00,
2013-07-11 19:23:00,63.0,53.1,30.01,SE,135,0.0,0.0,70,0.00,,---,0.00,VWS V14.01,2013-07-12 03:23:00,
2013-07-11 19:25:00,63.0,53.1,30.01,SE,135,0.0,1.0,70,0.00,,---,0.00,VWS V14.01,2013-07-12 03:25:00,
2013-07-11 19:28:00,62.9,52.6,30.01,SE,135,0.0,0.0,69,0.00,,---,0.00,VWS V14.01,2013-07-12 03:28:00,
2013-07-11 19:29:00,62.8,52.5,30.01,SE,135,0.0,0.0,69,0.00,,---,0.00,VWS V14.01,2013-07-12 03:29:00,
2013-07-11 19:30:00,62.8,52.5,30.01,SE,135,0.0,0.0,69,0.00,,---,0.00,VWS V14.01,2013-07-12 03:30:00,
2013-07-11 19:31:00,62.7,52.4,30.01,SE,135,0.0,0.0,69,0.00,,---,0.00,VWS V14.01,2013-07-12 03:31:00,
2013-07-11 19:33:00,62.7,52.4,30.01,SE,135,0.0,0.0,69,0.00,,---,0.00,VWS V14.01,2013-07-12 03:33:00,
2013-07-11 19:34:00,62.7,52.0,30.01,SE,135,0.0,0.0,68,0.00,,---,0.00,VWS V14.01,2013-07-12 03:34:00,
2013-07-11 19:36:00,62.7,52.8,30.01,SE,135,0.0,0.0,70,0.00,,---,0.00,VWS V14.01,2013-07-12 03:36:00,
2013-07-11 19:37:00,62.7,52.8,30.01,SE,135,0.0,0.0,70,0.00,,---,0.00,VWS V14.01,2013-07-12 03:37:00,
2013-07-11 19:38:00,62.7,52.8,30.01,SE,135,0.0,0.0,70,0.00,,---,0.00,VWS V14.01,2013-07-12 03:38:00,
2013-07-11 19:39:00,62.7,52.8,30.01,SE,135,0.0,0.0,70,0.00,,---,0.00,VWS V14.01,2013-07-12 03:39:00,
2013-07-11 19:41:00,62.7,52.8,30.01,SE,135,0.0,0.0,70,0.00,,---,0.00,VWS V14.01,2013-07-12 03:41:00,
2013-07-11 19:42:00,62.7,52.8,30.01,SE,135,0.0,0.0,70,0.00,,---,0.00,VWS V14.01,2013-07-12 03:42:00,
2013-07-11 19:43:00,62.7,52.8,30.01,SE,135,0.0,0.0,70,0.00,,---,0.00,VWS V14.01,2013-07-12 03:43:00,
2013-07-11 19:45:00,62.7,52.8,30.01,SE,135,0.0,0.0,70,0.00,,---,0.00,VWS V14.01,2013-07-12 03:45:00,
2013-07-11 19:46:00,62.6,51.9,30.01,SE,135,0.0,0.0,68,0.00,,---,0.00,VWS V14.01,2013-07-12 03:46:00,
2013-07-11 19:48:00,62.6,51.9,30.01,SE,135,0.0,0.0,68,0.00,,---,0.00,VWS V14.01,2013-07-12 03:48:00,
2013-07-11 19:50:00,62.6,51.5,30.01,SE,135,0.0,0.0,67,0.00,,---,0.00,VWS V14.01,2013-07-12 03:50:00,
2013-07-11 19:51:00,62.6,52.7,30.01,SE,135,0.0,0.0,70,0.00,,---,0.00,VWS V14.01,2013-07-12 03:51:00,
2013-07-11 19:53:00,62.5,52.2,30.01,SE,135,0.0,0.0,69,0.00,,---,0.00,VWS V14.01,2013-07-12 03:53:00,
2013-07-11 19:54:00,62.5,52.6,30.01,SE,135,0.0,0.0,70,0.00,,---,0.00,VWS V14.01,2013-07-12 03:54:00,
2013-07-11 19:55:00,62.5,52.2,30.01,SE,135,0.0,0.0,69,0.00,,---,0.00,VWS V14.01,2013-07-12 03:55:00,
2013-07-11 19:57:00,62.5,53.4,30.01,SE,135,0.0,0.0,72,0.00,,---,0.00,VWS V14.01,2013-07-12 03:57:00,
2013-07-11 19:58:00,62.5,52.6,30.01,SE,135,0.0,0.0,70,0.00,,---,0.00,VWS V14.01,2013-07-12 03:58:00,
2013-07-11 20:00:00,62.5,52.2,30.01,SE,135,0.0,0.0,69,0.00,,---,0.00,VWS V14.01,2013-07-12 04:00:00,
2013-07-11 20:01:00,62.5,51.8,30.01,SE,135,0.0,0.0,68,0.00,,---,0.00,VWS V14.01,2013-07-12 04:01:00,
2013-07-11 20:06:00,62.4,51.7,30.01,SE,135,0.0,0.0,68,0.00,,---,0.00,VWS V14.01,2013-07-12 04:06:00,
2013-07-11 20:11:00,62.3,50.4,30.01,SE,135,0.0,0.0,65,0.00,,---,0.00,VWS V14.01,2013-07-12 04:11:00,
2013-07-11 20:16:00,62.3,51.6,30.00,SE,135,0.0,0.0,68,0.00,,---,0.00,VWS V14.01,2013-07-12 04:16:00,
2013-07-11 20:17:00,62.3,51.6,30.00,SE,135,0.0,0.0,68,0.00,,---,0.00,VWS V14.01,2013-07-12 04:17:00,
2013-07-11 20:21:00,62.3,52.4,30.00,SE,135,0.0,0.0,70,0.00,,---,0.00,VWS V14.01,2013-07-12 04:21:00,
2013-07-11 20:22:00,62.2,51.5,30.01,SE,135,0.0,0.0,68,0.00,,---,0.00,VWS V14.01,2013-07-12 04:22:00,
2013-07-11 20:26:00,62.2,52.7,30.00,SE,135,0.0,0.0,71,0.00,,---,0.00,VWS V14.01,2013-07-12 04:26:00,
2013-07-11 20:27:00,62.2,52.7,30.00,SE,135,0.0,0.0,71,0.00,,---,0.00,VWS V14.01,2013-07-12 04:27:00,
2013-07-11 20:31:00,62.2,53.1,30.01,SE,135,0.0,0.0,72,0.00,,---,0.00,VWS V14.01,2013-07-12 04:31:00,
2013-07-11 20:32:00,62.1,53.0,30.01,SE,135,0.0,0.0,72,0.00,,---,0.00,VWS V14.01,2013-07-12 04:32:00,
2013-07-11 20:33:00,62.2,52.7,30.01,SE,135,0.0,0.0,71,0.00,,---,0.00,VWS V14.01,2013-07-12 04:33:00,
2013-07-11 20:36:00,62.2,52.7,30.00,SE,135,0.0,0.0,71,0.00,,---,0.00,VWS V14.01,2013-07-12 04:36:00,
2013-07-11 20:37:00,62.2,52.7,30.00,SE,135,0.0,0.0,71,0.00,,---,0.00,VWS V14.01,2013-07-12 04:37:00,
2013-07-11 20:38:00,62.2,52.3,30.00,SE,135,0.0,0.0,70,0.00,,---,0.00,VWS V14.01,2013-07-12 04:38:00,
2013-07-11 20:42:00,62.2,52.7,30.00,SE,135,0.0,0.0,71,0.00,,---,0.00,VWS V14.01,2013-07-12 04:42:00,
2013-07-11 20:43:00,62.2,52.3,30.00,SE,135,0.0,0.0,70,0.00,,---,0.00,VWS V14.01,2013-07-12 04:43:00,
2013-07-11 20:47:00,62.2,52.7,30.00,SE,135,0.0,0.0,71,0.00,,---,0.00,VWS V14.01,2013-07-12 04:47:00,
2013-07-11 20:48:00,62.2,52.3,30.00,SE,135,0.0,0.0,70,0.00,,---,0.00,VWS V14.01,2013-07-12 04:48:00,
2013-07-11 20:52:00,62.2,53.1,30.00,SE,135,0.0,0.0,72,0.00,,---,0.00,VWS V14.01,2013-07-12 04:52:00,
2013-07-11 20:53:00,62.2,52.7,30.00,SE,135,0.0,0.0,71,0.00,,---,0.00,VWS V14.01,2013-07-12 04:53:00,
2013-07-11 20:57:00,62.2,52.3,30.00,SE,135,0.0,0.0,70,0.00,,---,0.00,VWS V14.01,2013-07-12 04:57:00,
2013-07-11 20:58:00,62.2,52.7,30.00,SE,135,0.0,0.0,71,0.00,,---,0.00,VWS V14.01,2013-07-12 04:58:00,
2013-07-11 20:59:00,62.2,52.3,30.00,SE,135,0.0,0.0,70,0.00,,---,0.00,VWS V14.01,2013-07-12 04:59:00,
2013-07-11 21:02:00,62.3,52.4,30.00,SE,135,0.0,0.0,70,0.00,,---,0.00,VWS V14.01,2013-07-12 05:02:00,
2013-07-11 21:03:00,62.2,51.9,30.00,SE,135,0.0,0.0,69,0.00,,---,0.00,VWS V14.01,2013-07-12 05:03:00,
2013-07-11 21:04:00,62.2,51.9,30.00,SE,135,0.0,0.0,69,0.00,,---,0.00,VWS V14.01,2013-07-12 05:04:00,
2013-07-11 21:07:00,62.2,51.5,30.00,SE,135,0.0,0.0,68,0.00,,---,0.00,VWS V14.01,2013-07-12 05:07:00,
2013-07-11 21:08:00,62.2,51.5,30.00,SE,135,0.0,0.0,68,0.00,,---,0.00,VWS V14.01,2013-07-12 05:08:00,
2013-07-11 21:09:00,62.2,51.5,30.00,SE,135,0.0,0.0,68,0.00,,---,0.00,VWS V14.01,2013-07-12 05:09:00,
2013-07-11 21:10:00,62.2,51.5,30.00,SE,135,0.0,0.0,68,0.00,,---,0.00,VWS V14.01,2013-07-12 05:10:00,
2013-07-11 21:12:00,62.2,51.5,30.00,SE,135,0.0,0.0,68,0.00,,---,0.00,VWS V14.01,2013-07-12 05:12:00,
2013-07-11 21:13:00,62.2,51.5,30.00,SE,135,0.0,0.0,68,0.00,,---,0.00,VWS V14.01,2013-07-12 05:13:00,
2013-07-11 21:14:00,62.1,51.0,30.00,SE,135,0.0,0.0,67,0.00,,---,0.00,VWS V14.01,2013-07-12 05:14:00,
2013-07-11 21:15:00,62.2,51.5,30.00,SE,135,0.0,0.0,68,0.00,,---,0.00,VWS V14.01,2013-07-12 05:15:00,
2013-07-11 21:18:00,62.2,51.9,30.00,SE,135,0.0,0.0,69,0.00,,---,0.00,VWS V14.01,2013-07-12 05:18:00,
2013-07-11 21:19:00,62.1,51.8,30.00,SE,135,0.0,0.0,69,0.00,,---,0.00,VWS V14.01,2013-07-12 05:19:00,
2013-07-11 21:20:00,62.1,51.4,30.00,SE,135,0.0,0.0,68,0.00,,---,0.00,VWS V14.01,2013-07-12 05:20:00,
2013-07-11 21:23:00,62.0,51.3,30.00,SE,135,0.0,0.0,68,0.00,,---,0.00,VWS V14.01,2013-07-12 05:23:00,
2013-07-11 21:24:00,62.0,51.3,30.00,SE,135,0.0,0.0,68,0.00,,---,0.00,VWS V14.01,2013-07-12 05:24:00,
2013-07-11 21:26:00,61.9,51.2,30.00,SE,135,0.0,0.0,68,0.00,,---,0.00,VWS V14.01,2013-07-12 05:26:00,
2013-07-11 21:28:00,61.8,50.7,30.00,SE,135,0.0,0.0,67,0.00,,---,0.00,VWS V14.01,2013-07-12 05:28:00,
2013-07-11 21:29:00,61.8,50.7,30.00,SE,135,0.0,0.0,67,0.00,,---,0.00,VWS V14.01,2013-07-12 05:29:00,
2013-07-11 21:31:00,61.8,51.1,30.00,SE,135,0.0,0.0,68,0.00,,---,0.00,VWS V14.01,2013-07-12 05:31:00,
2013-07-11 21:33:00,61.7,50.6,30.00,SE,135,0.0,0.0,67,0.00,,---,0.00,VWS V14.01,2013-07-12 05:33:00,
2013-07-11 21:34:00,61.7,50.6,30.00,SE,135,0.0,0.0,67,0.00,,---,0.00,VWS V14.01,2013-07-12 05:34:00,
2013-07-11 21:35:00,61.7,50.6,30.00,SE,135,0.0,0.0,67,0.00,,---,0.00,VWS V14.01,2013-07-12 05:35:00,
2013-07-11 21:36:00,61.7,51.4,30.00,SE,135,0.0,0.0,69,0.00,,---,0.00,VWS V14.01,2013-07-12 05:36:00,
2013-07-11 21:38:00,61.7,51.4,30.00,SE,135,0.0,0.0,69,0.00,,---,0.00,VWS V14.01,2013-07-12 05:38:00,
2013-07-11 21:39:00,61.7,51.4,30.00,SE,135,0.0,0.0,69,0.00,,---,0.00,VWS V14.01,2013-07-12 05:39:00,
2013-07-11 21:40:00,61.7,51.8,30.00,SE,135,0.0,0.0,70,0.00,,---,0.00,VWS V14.01,2013-07-12 05:40:00,
2013-07-11 21:41:00,61.7,51.8,30.00,SE,135,0.0,0.0,70,0.00,,---,0.00,VWS V14.01,2013-07-12 05:41:00,
2013-07-11 21:43:00,61.7,52.6,30.00,SE,135,0.0,0.0,72,0.00,,---,0.00,VWS V14.01,2013-07-12 05:43:00,
2013-07-11 21:44:00,61.7,52.6,30.00,SE,135,0.0,0.0,72,0.00,,---,0.00,VWS V14.01,2013-07-12 05:44:00,
2013-07-11 21:45:00,61.7,52.6,30.00,SE,135,0.0,0.0,72,0.00,,---,0.00,VWS V14.01,2013-07-12 05:45:00,
2013-07-11 21:46:00,61.7,52.6,30.00,SE,135,0.0,0.0,72,0.00,,---,0.00,VWS V14.01,2013-07-12 05:46:00,
2013-07-11 21:49:00,61.7,53.0,30.00,SE,135,0.0,0.0,73,0.00,,---,0.00,VWS V14.01,2013-07-12 05:49:00,
2013-07-11 21:50:00,61.7,52.6,30.00,SE,135,0.0,0.0,72,0.00,,---,0.00,VWS V14.01,2013-07-12 05:50:00,
2013-07-11 21:51:00,61.7,53.3,30.00,SE,135,0.0,0.0,74,0.00,,---,0.00,VWS V14.01,2013-07-12 05:51:00,
2013-07-11 21:54:00,61.6,52.5,30.00,SE,135,0.0,0.0,72,0.00,,---,0.00,VWS V14.01,2013-07-12 05:54:00,
2013-07-11 21:55:00,61.6,52.5,30.00,SE,135,0.0,0.0,72,0.00,,---,0.00,VWS V14.01,2013-07-12 05:55:00,
2013-07-11 21:56:00,61.5,53.2,30.00,SE,135,0.0,0.0,74,0.00,,---,0.00,VWS V14.01,2013-07-12 05:56:00,
2013-07-11 21:59:00,61.5,53.5,30.00,SE,135,0.0,0.0,75,0.00,,---,0.00,VWS V14.01,2013-07-12 05:59:00,
2013-07-11 22:00:00,61.5,53.5,30.00,SE,135,0.0,0.0,75,0.00,,---,0.00,VWS V14.01,2013-07-12 06:00:00,
2013-07-11 22:01:00,61.5,53.5,30.00,SE,135,0.0,0.0,75,0.00,,---,0.00,VWS V14.01,2013-07-12 06:01:00,
2013-07-11 22:02:00,61.4,53.4,30.00,SE,135,0.0,0.0,75,0.00,,---,0.00,VWS V14.01,2013-07-12 06:02:00,
2013-07-11 22:04:00,61.4,53.4,30.00,SE,135,0.0,0.0,75,0.00,,---,0.00,VWS V14.01,2013-07-12 06:04:00,
2013-07-11 22:05:00,61.3,53.3,30.00,SE,135,0.0,0.0,75,0.00,,---,0.00,VWS V14.01,2013-07-12 06:05:00,
2013-07-11 22:06:00,61.3,53.7,30.00,SE,135,0.0,0.0,76,0.00,,---,0.00,VWS V14.01,2013-07-12 06:06:00,
2013-07-11 22:07:00,61.2,53.6,30.00,SE,135,0.0,0.0,76,0.00,,---,0.00,VWS V14.01,2013-07-12 06:07:00,
2013-07-11 22:10:00,61.1,53.1,30.00,SE,135,0.0,0.0,75,0.00,,---,0.00,VWS V14.01,2013-07-12 06:10:00,
2013-07-11 22:12:00,60.9,52.9,30.00,SE,135,0.0,0.0,75,0.00,,---,0.00,VWS V14.01,2013-07-12 06:12:00,
2013-07-11 22:15:00,60.7,52.7,30.00,SE,135,0.0,0.0,75,0.00,,---,0.00,VWS V14.01,2013-07-12 06:15:00,
2013-07-11 22:16:00,60.7,52.7,30.00,SE,135,0.0,0.0,75,0.00,,---,0.00,VWS V14.01,2013-07-12 06:16:00,
2013-07-11 22:17:00,60.7,53.1,30.00,SE,135,0.0,0.0,76,0.00,,---,0.00,VWS V14.01,2013-07-12 06:17:00,
2013-07-11 22:18:00,60.7,53.1,30.00,SE,135,0.0,0.0,76,0.00,,---,0.00,VWS V14.01,2013-07-12 06:18:00,
2013-07-11 22:20:00,60.6,53.0,29.99,SE,135,0.0,0.0,76,0.00,,---,0.00,VWS V14.01,2013-07-12 06:20:00,
2013-07-11 22:22:00,60.5,52.9,30.00,SE,135,0.0,0.0,76,0.00,,---,0.00,VWS V14.01,2013-07-12 06:22:00,
2013-07-11 22:23:00,60.5,52.9,29.99,SE,135,0.0,0.0,76,0.00,,---,0.00,VWS V14.01,2013-07-12 06:23:00,
2013-07-11 22:25:00,60.4,53.2,30.00,SE,135,0.0,0.0,77,0.00,,---,0.00,VWS V14.01,2013-07-12 06:25:00,
2013-07-11 22:26:00,60.4,53.2,30.00,SE,135,0.0,0.0,77,0.00,,---,0.00,VWS V14.01,2013-07-12 06:26:00,
2013-07-11 22:27:00,60.4,53.2,30.00,SE,135,0.0,0.0,77,0.00,,---,0.00,VWS V14.01,2013-07-12 06:27:00,
2013-07-11 22:28:00,60.3,53.1,30.00,SE,135,0.0,0.0,77,0.00,,---,0.00,VWS V14.01,2013-07-12 06:28:00,
2013-07-11 22:30:00,60.3,53.1,30.00,SE,135,0.0,0.0,77,0.00,,---,0.00,VWS V14.01,2013-07-12 06:30:00,
2013-07-11 22:31:00,60.3,53.1,30.00,SE,135,0.0,0.0,77,0.00,,---,0.00,VWS V14.01,2013-07-12 06:31:00,
2013-07-11 22:32:00,60.3,53.1,29.99,SE,135,0.0,0.0,77,0.00,,---,0.00,VWS V14.01,2013-07-12 06:32:00,
2013-07-11 22:33:00,60.2,53.0,30.00,SE,135,0.0,0.0,77,0.00,,---,0.00,VWS V14.01,2013-07-12 06:33:00,
2013-07-11 22:36:00,60.2,53.3,30.00,SE,135,0.0,0.0,78,0.00,,---,0.00,VWS V14.01,2013-07-12 06:36:00,
2013-07-11 22:37:00,60.2,53.3,30.00,SE,135,0.0,0.0,78,0.00,,---,0.00,VWS V14.01,2013-07-12 06:37:00,
2013-07-11 22:38:00,60.2,53.7,30.00,SE,135,0.0,0.0,79,0.00,,---,0.00,VWS V14.01,2013-07-12 06:38:00,
2013-07-11 22:39:00,60.2,53.7,30.00,SE,135,0.0,0.0,79,0.00,,---,0.00,VWS V14.01,2013-07-12 06:39:00,
2013-07-11 22:41:00,60.2,53.7,30.00,SE,135,0.0,0.0,79,0.00,,---,0.00,VWS V14.01,2013-07-12 06:41:00,
2013-07-11 22:42:00,60.2,53.7,30.00,SE,135,0.0,0.0,79,0.00,,---,0.00,VWS V14.01,2013-07-12 06:42:00,
2013-07-11 22:43:00,60.2,53.7,30.00,SE,135,0.0,0.0,79,0.00,,---,0.00,VWS V14.01,2013-07-12 06:43:00,
2013-07-11 22:44:00,60.2,53.7,30.00,SE,135,0.0,0.0,79,0.00,,---,0.00,VWS V14.01,2013-07-12 06:44:00,
2013-07-11 22:46:00,60.2,54.0,30.00,SE,135,0.0,0.0,80,0.00,,---,0.00,VWS V14.01,2013-07-12 06:46:00,
2013-07-11 22:47:00,60.1,53.9,30.00,SE,135,0.0,0.0,80,0.00,,---,0.00,VWS V14.01,2013-07-12 06:47:00,
2013-07-11 22:48:00,60.1,53.6,30.00,SE,135,0.0,0.0,79,0.00,,---,0.00,VWS V14.01,2013-07-12 06:48:00,
2013-07-11 22:49:00,60.1,53.9,30.00,SE,135,0.0,0.0,80,0.00,,---,0.00,VWS V14.01,2013-07-12 06:49:00,
2013-07-11 22:51:00,60.0,53.8,30.00,SE,135,0.0,0.0,80,0.00,,---,0.00,VWS V14.01,2013-07-12 06:51:00,
2013-07-11 22:53:00,60.0,53.5,30.00,SE,135,0.0,0.0,79,0.00,,---,0.00,VWS V14.01,2013-07-12 06:53:00,
2013-07-11 22:55:00,59.8,53.3,30.00,SE,135,0.0,0.0,79,0.00,,---,0.00,VWS V14.01,2013-07-12 06:55:00,
2013-07-11 22:56:00,59.8,53.3,30.00,SE,135,0.0,0.0,79,0.00,,---,0.00,VWS V14.01,2013-07-12 06:56:00,
2013-07-11 22:57:00,59.8,53.3,30.00,SE,135,0.0,0.0,79,0.00,,---,0.00,VWS V14.01,2013-07-12 06:57:00,
2013-07-11 22:58:00,59.8,53.3,30.00,SE,135,0.0,0.0,79,0.00,,---,0.00,VWS V14.01,2013-07-12 06:58:00,
2013-07-11 22:59:00,59.7,53.2,30.00,SE,135,0.0,0.0,79,0.00,,---,0.00,VWS V14.01,2013-07-12 06:59:00,
2013-07-11 23:00:00,59.7,53.2,30.00,SE,135,0.0,0.0,79,0.00,,---,0.00,VWS V14.01,2013-07-12 07:00:00,
2013-07-11 23:01:00,59.6,53.1,30.00,SE,135,0.0,0.0,79,0.00,,---,0.00,VWS V14.01,2013-07-12 07:01:00,
2013-07-11 23:02:00,59.6,53.1,30.00,SE,135,0.0,0.0,79,0.00,,---,0.00,VWS V14.01,2013-07-12 07:02:00,
2013-07-11 23:03:00,59.6,53.1,30.00,SE,135,0.0,0.0,79,0.00,,---,0.00,VWS V14.01,2013-07-12 07:03:00,
2013-07-11 23:04:00,59.6,53.1,30.00,SE,135,0.0,0.0,79,0.00,,---,0.00,VWS V14.01,2013-07-12 07:04:00,
2013-07-11 23:05:00,59.5,53.0,30.00,SE,135,0.0,0.0,79,0.00,,---,0.00,VWS V14.01,2013-07-12 07:05:00,
2013-07-11 23:07:00,59.5,53.0,30.00,SE,135,0.0,0.0,79,0.00,,---,0.00,VWS V14.01,2013-07-12 07:07:00,
2013-07-11 23:08:00,59.5,53.0,30.00,SE,135,0.0,0.0,79,0.00,,---,0.00,VWS V14.01,2013-07-12 07:08:00,
2013-07-11 23:09:00,59.5,53.0,30.00,SE,135,0.0,0.0,79,0.00,,---,0.00,VWS V14.01,2013-07-12 07:09:00,
2013-07-11 23:11:00,59.5,53.0,30.00,SE,135,0.0,0.0,79,0.00,,---,0.00,VWS V14.01,2013-07-12 07:11:00,
2013-07-11 23:12:00,59.4,52.9,30.00,SE,135,0.0,0.0,79,0.00,,---,0.00,VWS V14.01,2013-07-12 07:12:00,
2013-07-11 23:13:00,59.4,52.9,30.00,SE,135,0.0,0.0,79,0.00,,---,0.00,VWS V14.01,2013-07-12 07:13:00,
2013-07-11 23:15:00,59.3,52.8,30.00,SE,135,0.0,0.0,79,0.00,,---,0.00,VWS V14.01,2013-07-12 07:15:00,
2013-07-11 23:16:00,59.3,52.8,30.00,SE,135,0.0,0.0,79,0.00,,---,0.00,VWS V14.01,2013-07-12 07:16:00,
2013-07-11 23:17:00,59.2,52.7,30.00,SE,135,0.0,0.0,79,0.00,,---,0.00,VWS V14.01,2013-07-12 07:17:00,
2013-07-11 23:18:00,59.2,52.7,30.00,SE,135,0.0,0.0,79,0.00,,---,0.00,VWS V14.01,2013-07-12 07:18:00,
2013-07-11 23:21:00,59.0,52.2,30.00,SE,135,0.0,0.0,78,0.00,,---,0.00,VWS V14.01,2013-07-12 07:21:00,
2013-07-11 23:23:00,58.9,52.1,30.00,SE,135,0.0,0.0,78,0.00,,---,0.00,VWS V14.01,2013-07-12 07:23:00,
2013-07-11 23:26:00,58.6,51.4,30.00,SE,135,0.0,0.0,77,0.00,,---,0.00,VWS V14.01,2013-07-12 07:26:00,
2013-07-11 23:27:00,58.6,51.4,30.00,SE,135,0.0,0.0,77,0.00,,---,0.00,VWS V14.01,2013-07-12 07:27:00,
2013-07-11 23:28:00,58.5,51.3,30.00,SE,135,0.0,0.0,77,0.00,,---,0.00,VWS V14.01,2013-07-12 07:28:00,
2013-07-11 23:31:00,58.3,51.1,30.00,SE,135,0.0,0.0,77,0.00,,---,0.00,VWS V14.01,2013-07-12 07:31:00,
2013-07-11 23:32:00,58.3,51.5,30.00,SE,135,0.0,0.0,78,0.00,,---,0.00,VWS V14.01,2013-07-12 07:32:00,
2013-07-11 23:34:00,58.1,51.3,30.00,SE,135,0.0,0.0,78,0.00,,---,0.00,VWS V14.01,2013-07-12 07:34:00,
2013-07-11 23:36:00,58.0,51.5,30.00,SE,135,0.0,0.0,79,0.00,,---,0.00,VWS V14.01,2013-07-12 07:36:00,
2013-07-11 23:37:00,58.0,51.9,30.00,SE,135,0.0,0.0,80,0.00,,---,0.00,VWS V14.01,2013-07-12 07:37:00,
2013-07-11 23:39:00,57.9,52.1,30.00,SE,135,0.0,0.0,81,0.00,,---,0.00,VWS V14.01,2013-07-12 07:39:00,
2013-07-11 23:42:00,57.7,51.9,30.00,SE,135,0.0,0.0,81,0.00,,---,0.00,VWS V14.01,2013-07-12 07:42:00,
2013-07-11 23:44:00,57.6,51.5,30.00,SE,135,0.0,0.0,80,0.00,,---,0.00,VWS V14.01,2013-07-12 07:44:00,
2013-07-11 23:45:00,57.4,51.3,30.00,SE,135,0.0,0.0,80,0.00,,---,0.00,VWS V14.01,2013-07-12 07:45:00,
2013-07-11 23:47:00,57.3,51.2,30.00,SE,135,0.0,0.0,80,0.00,,---,0.00,VWS V14.01,2013-07-12 07:47:00,
2013-07-11 23:49:00,57.1,51.0,30.00,SE,135,0.0,0.0,80,0.00,,---,0.00,VWS V14.01,2013-07-12 07:49:00,
2013-07-11 23:50:00,56.9,50.5,30.00,SE,135,0.0,0.0,79,0.00,,---,0.00,VWS V14.01,2013-07-12 07:50:00,
2013-07-11 23:52:00,56.8,50.4,30.01,SE,135,0.0,0.0,79,0.00,,---,0.00,VWS V14.01,2013-07-12 07:52:00,
2013-07-11 23:54:00,56.6,50.2,30.00,SE,135,0.0,0.0,79,0.00,,---,0.00,VWS V14.01,2013-07-12 07:54:00,
2013-07-11 23:55:00,56.5,50.1,30.00,SE,135,0.0,0.0,79,0.00,,---,0.00,VWS V14.01,2013-07-12 07:55:00,
2013-07-11 23:56:00,56.4,50.3,30.00,SE,135,0.0,0.0,80,0.00,,---,0.00,VWS V14.01,2013-07-12 07:56:00,
2013-07-11 23:57:00,56.3,50.5,30.00,SE,135,0.0,0.0,81,0.00,,---,0.00,VWS V14.01,2013-07-12 07:57:00,
2013-07-11 23:59:00,56.2,50.8,30.00,SE,135,0.0,0.0,82,0.00,,---,0.00,VWS V14.01,2013-07-12 07:59:00,